Observation data for Aiken on 08/06/2020      Previous  Date       Current Mesonet Observations  Soil Data  Daily Summary Page  Observations in Plain Language
KAI1 060500Z 09011KT 24/18 A3003 RMK A01 T02420176  RH  067%=      5-min Rain = 0
KAI1 060501Z 09010KT 24/18 A3003 RMK A01 T02420177  RH  067%=      5-min Rain = 0
KAI1 060502Z 09009KT 24/18 A3003 RMK A01 T02420177  RH  067%=      5-min Rain = 0
KAI1 060503Z 09010KT 24/18 A3003 RMK A01 T02410178  RH  068%=      5-min Rain = 0
KAI1 060504Z 09009KT 24/18 A3003 RMK A01 T02400178  RH  068%=      5-min Rain = 0
KAI1 060505Z 09009KT 24/18 A3003 RMK A01 T02390178  RH  069%=      5-min Rain = 0
KAI1 060506Z 09011KT 24/18 A3003 RMK A01 T02390178  RH  069%=      5-min Rain = 0
KAI1 060507Z 09009KT 24/18 A3003 RMK A01 T02380179  RH  069%=      5-min Rain = 0
KAI1 060508Z 09013KT 24/18 A3003 RMK A01 T02380179  RH  069%=      5-min Rain = 0
KAI1 060509Z 10012KT 24/18 A3003 RMK A01 T02390180  RH  070%=      5-min Rain = 0
KAI1 060510Z 09011KT 24/18 A3003 RMK A01 T02390181  RH  070%=      5-min Rain = 0
KAI1 060511Z 09010KT 24/18 A3003 RMK A01 T02390181  RH  070%=      5-min Rain = 0
KAI1 060512Z 09010KT 24/18 A3003 RMK A01 T02390182  RH  070%=      5-min Rain = 0
KAI1 060513Z 09010KT 24/18 A3003 RMK A01 T02380182  RH  071%=      5-min Rain = 0
KAI1 060514Z 09010KT 24/18 A3003 RMK A01 T02380182  RH  071%=      5-min Rain = 0
KAI1 060515Z 10011KT 24/18 A3003 RMK A01 T02370182  RH  071%=      5-min Rain = 0
KAI1 060516Z 10009KT 24/18 A3003 RMK A01 T02370182  RH  071%=      5-min Rain = 0
KAI1 060517Z 09009KT 24/18 A3003 RMK A01 T02360182  RH  072%=      5-min Rain = 0
KAI1 060518Z 09009KT 24/18 A3003 RMK A01 T02360182  RH  072%=      5-min Rain = 0
KAI1 060519Z 09010KT 24/18 A3003 RMK A01 T02360183  RH  072%=      5-min Rain = 0
KAI1 060520Z 09011KT 24/18 A3003 RMK A01 T02360182  RH  072%=      5-min Rain = 0
KAI1 060521Z 09012KT 24/18 A3003 RMK A01 T02360183  RH  072%=      5-min Rain = 0
KAI1 060522Z 10011KT 24/18 A3003 RMK A01 T02360183  RH  072%=      5-min Rain = 0
KAI1 060523Z 10012KT 24/18 A3003 RMK A01 T02360183  RH  072%=      5-min Rain = 0
KAI1 060524Z 10010KT 24/18 A3003 RMK A01 T02360183  RH  072%=      5-min Rain = 0
KAI1 060525Z 10010KT 24/18 A3003 RMK A01 T02360183  RH  072%=      5-min Rain = 0
KAI1 060526Z 10013KT 24/18 A3003 RMK A01 T02350183  RH  073%=      5-min Rain = 0
KAI1 060527Z 09011KT 24/18 A3003 RMK A01 T02350183  RH  073%=      5-min Rain = 0
KAI1 060528Z 10013KT 24/18 A3003 RMK A01 T02350183  RH  073%=      5-min Rain = 0
KAI1 060529Z 10012KT 24/18 A3003 RMK A01 T02350183  RH  073%=      5-min Rain = 0
KAI1 060530Z 09009G14KT 24/18 A3003 RMK A01 T02350183  RH  073%=      5-min Rain = 0
KAI1 060531Z 10012KT 23/18 A3003 RMK A01 T02340184  RH  073%=      5-min Rain = 0
KAI1 060532Z 09013KT 23/18 A3003 RMK A01 T02340184  RH  073%=      5-min Rain = 0
KAI1 060533Z 10012G18KT 23/18 A3003 RMK A01 T02340184  RH  073%=      5-min Rain = 0
KAI1 060534Z 10013KT 23/18 A3003 RMK A01 T02340184  RH  073%=      5-min Rain = 0
KAI1 060535Z 10013G18KT 23/18 A3003 RMK A01 T02340184  RH  073%=      5-min Rain = 0
KAI1 060536Z 10012KT 23/18 A3003 RMK A01 T02340184  RH  073%=      5-min Rain = 0
KAI1 060537Z 10010KT 23/18 A3003 RMK A01 T02340184  RH  073%=      5-min Rain = 0
KAI1 060538Z 10011KT 23/18 A3004 RMK A01 T02340184  RH  073%=      5-min Rain = 0
KAI1 060539Z 10013KT 23/18 A3004 RMK A01 T02340184  RH  074%=      5-min Rain = 0
KAI1 060540Z 10011KT 23/18 A3004 RMK A01 T02330184  RH  074%=      5-min Rain = 0
KAI1 060541Z 10012G17KT 23/18 A3004 RMK A01 T02330183  RH  074%=      5-min Rain = 0
KAI1 060542Z 10010KT 23/18 A3004 RMK A01 T02330184  RH  074%=      5-min Rain = 0
KAI1 060543Z 09009KT 23/18 A3004 RMK A01 T02330184  RH  074%=      5-min Rain = 0
KAI1 060544Z 10009G14KT 23/18 A3004 RMK A01 T02330184  RH  074%=      5-min Rain = 0
KAI1 060545Z 10008KT 23/18 A3004 RMK A01 T02320183  RH  074%=      5-min Rain = 0
KAI1 060546Z 10010KT 23/18 A3004 RMK A01 T02320184  RH  074%=      5-min Rain = 0
KAI1 060547Z 10010KT 23/18 A3004 RMK A01 T02320184  RH  074%=      5-min Rain = 0
KAI1 060548Z 10010KT 23/18 A3004 RMK A01 T02320184  RH  074%=      5-min Rain = 0
KAI1 060549Z 10011KT 23/18 A3004 RMK A01 T02320184  RH  074%=      5-min Rain = 0
KAI1 060550Z 10011KT 23/18 A3004 RMK A01 T02310184  RH  074%=      5-min Rain = 0
KAI1 060551Z 10011G16KT 23/18 A3004 RMK A01 T02310184  RH  075%=      5-min Rain = 0
KAI1 060552Z 09010KT 23/18 A3004 RMK A01 T02310184  RH  075%=      5-min Rain = 0
KAI1 060553Z 09009KT 23/18 A3004 RMK A01 T02310184  RH  075%=      5-min Rain = 0
KAI1 060554Z 10012KT 23/18 A3004 RMK A01 T02300184  RH  075%=      5-min Rain = 0
KAI1 060555Z 10010KT 23/18 A3004 RMK A01 T02300184  RH  075%=      5-min Rain = 0
KAI1 060556Z 10012KT 23/18 A3004 RMK A01 T02300184  RH  075%=      5-min Rain = 0
KAI1 060557Z 10010KT 23/18 A3004 RMK A01 T02300184  RH  075%=      5-min Rain = 0
KAI1 060558Z 10011KT 23/18 A3004 RMK A01 T02290184  RH  075%=      5-min Rain = 0
KAI1 060559Z 10011KT 23/18 A3004 RMK A01 T02290184  RH  076%=      5-min Rain = 0
KAI1 060600Z 09010KT 23/18 A3004 RMK A01 T02290184  RH  076%=      5-min Rain = 0
KAI1 060601Z 09011KT 23/18 A3004 RMK A01 T02290184  RH  076%=      5-min Rain = 0
KAI1 060602Z 09009KT 23/18 A3004 RMK A01 T02290184  RH  076%=      5-min Rain = 0
KAI1 060603Z 10010KT 23/18 A3004 RMK A01 T02290184  RH  076%=      5-min Rain = 0
KAI1 060604Z 10008KT 23/18 A3004 RMK A01 T02280184  RH  076%=      5-min Rain = 0
KAI1 060605Z 09010KT 23/18 A3004 RMK A01 T02280184  RH  076%=      5-min Rain = 0
KAI1 060606Z 10008KT 23/18 A3004 RMK A01 T02280184  RH  076%=      5-min Rain = 0
KAI1 060607Z 10008KT 23/18 A3004 RMK A01 T02270184  RH  076%=      5-min Rain = 0
KAI1 060608Z 10008KT 23/18 A3004 RMK A01 T02270184  RH  077%=      5-min Rain = 0
KAI1 060609Z 10008KT 23/18 A3004 RMK A01 T02270184  RH  077%=      5-min Rain = 0
KAI1 060610Z 10008KT 23/18 A3004 RMK A01 T02260184  RH  077%=      5-min Rain = 0
KAI1 060611Z 10007KT 23/18 A3004 RMK A01 T02260184  RH  077%=      5-min Rain = 0
KAI1 060612Z 10007KT 23/18 A3004 RMK A01 T02260184  RH  077%=      5-min Rain = 0
KAI1 060613Z 10007KT 23/19 A3004 RMK A01 T02260185  RH  077%=      5-min Rain = 0
KAI1 060614Z 10007KT 23/19 A3004 RMK A01 T02260185  RH  077%=      5-min Rain = 0
KAI1 060615Z 11006KT 23/19 A3004 RMK A01 T02250185  RH  078%=      5-min Rain = 0
KAI1 060616Z 10007KT 23/18 A3004 RMK A01 T02250184  RH  078%=      5-min Rain = 0
KAI1 060617Z 11007KT 23/18 A3004 RMK A01 T02250184  RH  078%=      5-min Rain = 0
KAI1 060618Z 11007KT 23/19 A3004 RMK A01 T02250185  RH  078%=      5-min Rain = 0
KAI1 060619Z 11007KT 23/19 A3004 RMK A01 T02250185  RH  078%=      5-min Rain = 0
KAI1 060620Z 10006KT 23/19 A3003 RMK A01 T02250185  RH  078%=      5-min Rain = 0
KAI1 060621Z 10007KT 23/19 A3003 RMK A01 T02250185  RH  078%=      5-min Rain = 0
KAI1 060622Z 11008KT 22/19 A3003 RMK A01 T02240185  RH  078%=      5-min Rain = 0
KAI1 060623Z 11008KT 22/19 A3003 RMK A01 T02240185  RH  079%=      5-min Rain = 0
KAI1 060624Z 11008KT 22/19 A3003 RMK A01 T02240185  RH  078%=      5-min Rain = 0
KAI1 060625Z 10008KT 22/19 A3003 RMK A01 T02240185  RH  079%=      5-min Rain = 0
KAI1 060626Z 10008KT 22/19 A3003 RMK A01 T02240185  RH  079%=      5-min Rain = 0
KAI1 060627Z 11008KT 22/19 A3003 RMK A01 T02240185  RH  079%=      5-min Rain = 0
KAI1 060628Z 11007KT 22/19 A3003 RMK A01 T02240185  RH  079%=      5-min Rain = 0
KAI1 060629Z 11007KT 22/19 A3003 RMK A01 T02230185  RH  079%=      5-min Rain = 0
KAI1 060630Z 11009KT 22/19 A3003 RMK A01 T02240185  RH  079%=      5-min Rain = 0
KAI1 060631Z 11009KT 22/19 A3003 RMK A01 T02230185  RH  079%=      5-min Rain = 0
KAI1 060632Z 10008KT 22/19 A3003 RMK A01 T02240185  RH  079%=      5-min Rain = 0
KAI1 060633Z 11007KT 22/19 A3003 RMK A01 T02240185  RH  079%=      5-min Rain = 0
KAI1 060634Z 11008KT 22/19 A3003 RMK A01 T02240185  RH  079%=      5-min Rain = 0
KAI1 060635Z 10008KT 22/19 A3003 RMK A01 T02230185  RH  079%=      5-min Rain = 0
KAI1 060636Z 11008KT 22/19 A3003 RMK A01 T02230185  RH  079%=      5-min Rain = 0
KAI1 060637Z 11008KT 22/19 A3003 RMK A01 T02230185  RH  079%=      5-min Rain = 0
KAI1 060638Z 11008KT 22/19 A3003 RMK A01 T02230186  RH  079%=      5-min Rain = 0
KAI1 060639Z 11008KT 22/19 A3003 RMK A01 T02230186  RH  079%=      5-min Rain = 0
KAI1 060640Z 10008KT 22/19 A3003 RMK A01 T02230186  RH  079%=      5-min Rain = 0
KAI1 060641Z 11007KT 22/19 A3003 RMK A01 T02240186  RH  079%=      5-min Rain = 0
KAI1 060642Z 11008KT 22/19 A3003 RMK A01 T02230185  RH  079%=      5-min Rain = 0
KAI1 060643Z 11007KT 22/19 A3003 RMK A01 T02230186  RH  079%=      5-min Rain = 0
KAI1 060644Z 11007KT 22/19 A3003 RMK A01 T02230186  RH  079%=      5-min Rain = 0
KAI1 060645Z 11008KT 22/19 A3003 RMK A01 T02230186  RH  080%=      5-min Rain = 0
KAI1 060646Z 11008KT 22/19 A3003 RMK A01 T02230186  RH  080%=      5-min Rain = 0
KAI1 060647Z 11008KT 22/19 A3003 RMK A01 T02220185  RH  080%=      5-min Rain = 0
KAI1 060648Z 11007KT 22/19 A3003 RMK A01 T02220186  RH  080%=      5-min Rain = 0
KAI1 060649Z 11007KT 22/19 A3003 RMK A01 T02220186  RH  080%=      5-min Rain = 0
KAI1 060650Z 11008KT 22/19 A3003 RMK A01 T02220186  RH  080%=      5-min Rain = 0
KAI1 060651Z 10008KT 22/19 A3003 RMK A01 T02230186  RH  080%=      5-min Rain = 0
KAI1 060652Z 11008KT 22/19 A3003 RMK A01 T02220186  RH  080%=      5-min Rain = 0
KAI1 060653Z 11008KT 22/19 A3003 RMK A01 T02220186  RH  080%=      5-min Rain = 0
KAI1 060654Z 11008KT 22/19 A3003 RMK A01 T02220186  RH  080%=      5-min Rain = 0
KAI1 060655Z 11009KT 22/19 A3003 RMK A01 T02230186  RH  080%=      5-min Rain = 0
KAI1 060656Z 10009KT 22/19 A3003 RMK A01 T02220186  RH  080%=      5-min Rain = 0
KAI1 060657Z 11008KT 22/19 A3003 RMK A01 T02220186  RH  080%=      5-min Rain = 0
KAI1 060658Z 11007KT 22/19 A3003 RMK A01 T02220186  RH  080%=      5-min Rain = 0
KAI1 060659Z 11008KT 22/19 A3003 RMK A01 T02230187  RH  080%=      5-min Rain = 0
KAI1 060700Z 11009KT 22/19 A3003 RMK A01 T02220186  RH  080%=      5-min Rain = 0
KAI1 060701Z 11008KT 22/19 A3003 RMK A01 T02220186  RH  080%=      5-min Rain = 0
KAI1 060702Z 11009KT 22/19 A3003 RMK A01 T02230186  RH  080%=      5-min Rain = 0
KAI1 060703Z 11008KT 22/19 A3003 RMK A01 T02230187  RH  080%=      5-min Rain = 0
KAI1 060704Z 11008KT 22/19 A3003 RMK A01 T02230186  RH  080%=      5-min Rain = 0
KAI1 060705Z 11009KT 22/19 A3003 RMK A01 T02230187  RH  080%=      5-min Rain = 0
KAI1 060706Z 11009KT 22/19 A3003 RMK A01 T02230186  RH  080%=      5-min Rain = 0
KAI1 060707Z 11008KT 22/19 A3003 RMK A01 T02230187  RH  080%=      5-min Rain = 0
KAI1 060708Z 11007KT 22/19 A3003 RMK A01 T02230187  RH  080%=      5-min Rain = 0
KAI1 060709Z 11008KT 22/19 A3003 RMK A01 T02230187  RH  080%=      5-min Rain = 0
KAI1 060710Z 11009KT 22/19 A3003 RMK A01 T02220187  RH  080%=      5-min Rain = 0
KAI1 060711Z 11009KT 22/19 A3003 RMK A01 T02220187  RH  080%=      5-min Rain = 0
KAI1 060712Z 10009KT 22/19 A3003 RMK A01 T02220187  RH  080%=      5-min Rain = 0
KAI1 060713Z 10009KT 22/19 A3003 RMK A01 T02220187  RH  080%=      5-min Rain = 0
KAI1 060714Z 11008KT 22/19 A3003 RMK A01 T02220187  RH  080%=      5-min Rain = 0
KAI1 060715Z 10006KT 22/19 A3003 RMK A01 T02220187  RH  081%=      5-min Rain = 0
KAI1 060716Z 11007KT 22/19 A3003 RMK A01 T02220187  RH  081%=      5-min Rain = 0
KAI1 060717Z 11009KT 22/19 A3003 RMK A01 T02210187  RH  081%=      5-min Rain = 0
KAI1 060718Z 11008KT 22/19 A3003 RMK A01 T02210187  RH  081%=      5-min Rain = 0
KAI1 060719Z 11007KT 22/19 A3003 RMK A01 T02210187  RH  081%=      5-min Rain = 0
KAI1 060720Z 11007KT 22/19 A3003 RMK A01 T02200187  RH  081%=      5-min Rain = 0
KAI1 060721Z 10008KT 22/19 A3003 RMK A01 T02200187  RH  082%=      5-min Rain = 0
KAI1 060722Z 10008KT 22/19 A3003 RMK A01 T02200187  RH  082%=      5-min Rain = 0
KAI1 060723Z 10008KT 22/19 A3003 RMK A01 T02200187  RH  082%=      5-min Rain = 0
KAI1 060724Z 10008KT 22/19 A3003 RMK A01 T02200187  RH  082%=      5-min Rain = 0
KAI1 060725Z 11008KT 22/19 A3003 RMK A01 T02200187  RH  082%=      5-min Rain = 0
KAI1 060726Z 11009KT 22/19 A3003 RMK A01 T02190187  RH  082%=      5-min Rain = 0
KAI1 060727Z 11009KT 22/19 A3003 RMK A01 T02190187  RH  082%=      5-min Rain = 0
KAI1 060728Z 11008KT 22/19 A3003 RMK A01 T02190187  RH  082%=      5-min Rain = 0
KAI1 060729Z 10008KT 22/19 A3003 RMK A01 T02190187  RH  082%=      5-min Rain = 0
KAI1 060730Z 11009KT 22/19 A3003 RMK A01 T02190187  RH  082%=      5-min Rain = 0
KAI1 060731Z 11008KT 22/19 A3002 RMK A01 T02190187  RH  082%=      5-min Rain = 0
KAI1 060732Z 10006KT 22/19 A3002 RMK A01 T02190187  RH  082%=      5-min Rain = 0
KAI1 060733Z 11007KT 22/19 A3002 RMK A01 T02190187  RH  082%=      5-min Rain = 0
KAI1 060734Z 11008KT 22/19 A3002 RMK A01 T02180187  RH  083%=      5-min Rain = 0
KAI1 060735Z 12007KT 22/19 A3002 RMK A01 T02170187  RH  083%=      5-min Rain = 0
KAI1 060736Z 12007KT 22/19 A3002 RMK A01 T02180187  RH  083%=      5-min Rain = 0
KAI1 060737Z 13006KT 22/19 A3002 RMK A01 T02180187  RH  083%=      5-min Rain = 0
KAI1 060738Z 12007KT 22/19 A3003 RMK A01 T02170187  RH  083%=      5-min Rain = 0
KAI1 060739Z 12007KT 22/19 A3002 RMK A01 T02170187  RH  083%=      5-min Rain = 0
KAI1 060740Z 12007KT 22/19 A3003 RMK A01 T02170188  RH  083%=      5-min Rain = 0
KAI1 060741Z 11007KT 22/19 A3003 RMK A01 T02170187  RH  083%=      5-min Rain = 0
KAI1 060742Z 11007KT 22/19 A3003 RMK A01 T02170188  RH  083%=      5-min Rain = 0
KAI1 060743Z 10007KT 22/19 A3003 RMK A01 T02170187  RH  083%=      5-min Rain = 0
KAI1 060744Z 11009KT 22/19 A3002 RMK A01 T02160187  RH  083%=      5-min Rain = 0
KAI1 060745Z 11008KT 22/19 A3002 RMK A01 T02160187  RH  084%=      5-min Rain = 0
KAI1 060746Z 11010KT 22/19 A3002 RMK A01 T02170188  RH  084%=      5-min Rain = 0
KAI1 060747Z 11010KT 22/19 A3002 RMK A01 T02160187  RH  084%=      5-min Rain = 0
KAI1 060748Z 11009KT 22/19 A3002 RMK A01 T02170187  RH  083%=      5-min Rain = 0
KAI1 060749Z 11009KT 22/19 A3002 RMK A01 T02170188  RH  084%=      5-min Rain = 0
KAI1 060750Z 11009KT 22/19 A3002 RMK A01 T02160187  RH  084%=      5-min Rain = 0
KAI1 060751Z 11010KT 22/19 A3002 RMK A01 T02170188  RH  084%=      5-min Rain = 0
KAI1 060752Z 11009KT 22/19 A3002 RMK A01 T02160187  RH  084%=      5-min Rain = 0
KAI1 060753Z 11009KT 22/19 A3002 RMK A01 T02160188  RH  084%=      5-min Rain = 0
KAI1 060754Z 11009KT 22/19 A3002 RMK A01 T02150187  RH  084%=      5-min Rain = 0
KAI1 060755Z 11009KT 22/19 A3002 RMK A01 T02150187  RH  084%=      5-min Rain = 0
KAI1 060756Z 11010KT 22/19 A3002 RMK A01 T02160188  RH  084%=      5-min Rain = 0
KAI1 060757Z 12008KT 22/19 A3002 RMK A01 T02160188  RH  084%=      5-min Rain = 0
KAI1 060758Z 12009KT 22/19 A3002 RMK A01 T02160188  RH  084%=      5-min Rain = 0
KAI1 060759Z 12007KT 22/19 A3002 RMK A01 T02150187  RH  084%=      5-min Rain = 0
KAI1 060800Z 12008KT 22/19 A3002 RMK A01 T02150187  RH  084%=      5-min Rain = 0
KAI1 060801Z 12010KT 22/19 A3002 RMK A01 T02150188  RH  084%=      5-min Rain = 0
KAI1 060802Z 12008KT 22/19 A3002 RMK A01 T02150187  RH  084%=      5-min Rain = 0
KAI1 060803Z 12008KT 22/19 A3002 RMK A01 T02150187  RH  084%=      5-min Rain = 0
KAI1 060804Z 12010KT 22/19 A3001 RMK A01 T02150187  RH  084%=      5-min Rain = 0
KAI1 060805Z 12011KT 22/19 A3001 RMK A01 T02150187  RH  084%=      5-min Rain = 0
KAI1 060806Z 12010KT 22/19 A3001 RMK A01 T02150187  RH  084%=      5-min Rain = 0
KAI1 060807Z 11010KT 22/19 A3001 RMK A01 T02150187  RH  084%=      5-min Rain = 0
KAI1 060808Z 12010KT 22/19 A3001 RMK A01 T02150188  RH  084%=      5-min Rain = 0
KAI1 060809Z 12011KT 22/19 A3001 RMK A01 T02150187  RH  084%=      5-min Rain = 0
KAI1 060810Z 12011KT 22/19 A3001 RMK A01 T02150187  RH  084%=      5-min Rain = 0
KAI1 060811Z 12010KT 22/19 A3001 RMK A01 T02150187  RH  084%=      5-min Rain = 0
KAI1 060812Z 12008KT 22/19 A3001 RMK A01 T02150187  RH  084%=      5-min Rain = 0
KAI1 060813Z 12009KT 21/19 A3001 RMK A01 T02140187  RH  085%=      5-min Rain = 0
KAI1 060814Z 12010KT 21/19 A3001 RMK A01 T02140187  RH  085%=      5-min Rain = 0
KAI1 060815Z 12008KT 21/19 A3001 RMK A01 T02140187  RH  085%=      5-min Rain = 0
KAI1 060816Z 12007KT 21/19 A3001 RMK A01 T02130187  RH  085%=      5-min Rain = 0
KAI1 060817Z 13006KT 21/19 A3001 RMK A01 T02130187  RH  085%=      5-min Rain = 0
KAI1 060818Z 13006KT 21/19 A3001 RMK A01 T02120187  RH  085%=      5-min Rain = 0
KAI1 060819Z 13007KT 21/19 A3001 RMK A01 T02120187  RH  085%=      5-min Rain = 0
KAI1 060820Z 13007KT 21/19 A3001 RMK A01 T02120187  RH  086%=      5-min Rain = 0
KAI1 060821Z 13008KT 21/19 A3001 RMK A01 T02120187  RH  086%=      5-min Rain = 0
KAI1 060822Z 13009KT 21/19 A3001 RMK A01 T02110187  RH  086%=      5-min Rain = 0
KAI1 060823Z 12008KT 21/19 A3001 RMK A01 T02110187  RH  086%=      5-min Rain = 0
KAI1 060824Z 12007KT 21/19 A3001 RMK A01 T02110187  RH  086%=      5-min Rain = 0
KAI1 060825Z 12009KT 21/19 A3001 RMK A01 T02110187  RH  086%=      5-min Rain = 0
KAI1 060826Z 12009KT 21/19 A3001 RMK A01 T02110187  RH  086%=      5-min Rain = 0
KAI1 060827Z 12007KT 21/19 A3002 RMK A01 T02110187  RH  086%=      5-min Rain = 0
KAI1 060828Z 12007KT 21/19 A3002 RMK A01 T02100187  RH  087%=      5-min Rain = 0
KAI1 060829Z 12007KT 21/19 A3002 RMK A01 T02100187  RH  087%=      5-min Rain = 0
KAI1 060830Z 12007KT 21/19 A3002 RMK A01 T02100187  RH  087%=      5-min Rain = 0
KAI1 060831Z 12007KT 21/19 A3002 RMK A01 T02100187  RH  087%=      5-min Rain = 0
KAI1 060832Z 12007KT 21/19 A3002 RMK A01 T02090187  RH  087%=      5-min Rain = 0
KAI1 060833Z 13006KT 21/19 A3001 RMK A01 T02090187  RH  087%=      5-min Rain = 0
KAI1 060834Z 13007KT 21/19 A3001 RMK A01 T02090187  RH  087%=      5-min Rain = 0
KAI1 060835Z 13007KT 21/19 A3001 RMK A01 T02090187  RH  087%=      5-min Rain = 0
KAI1 060836Z 13008KT 21/19 A3001 RMK A01 T02080187  RH  088%=      5-min Rain = 0
KAI1 060837Z 12008KT 21/19 A3001 RMK A01 T02080187  RH  088%=      5-min Rain = 0
KAI1 060838Z 12008KT 21/19 A3001 RMK A01 T02080187  RH  088%=      5-min Rain = 0
KAI1 060839Z 12008KT 21/19 A3001 RMK A01 T02080187  RH  088%=      5-min Rain = 0
KAI1 060840Z 12008KT 21/19 A3001 RMK A01 T02070187  RH  088%=      5-min Rain = 0
KAI1 060841Z 12008KT 21/19 A3001 RMK A01 T02070187  RH  088%=      5-min Rain = 0
KAI1 060842Z 12009KT 21/19 A3001 RMK A01 T02070187  RH  088%=      5-min Rain = 0
KAI1 060843Z 13009KT 21/19 A3001 RMK A01 T02070187  RH  088%=      5-min Rain = 0
KAI1 060844Z 12008KT 21/19 A3001 RMK A01 T02070187  RH  089%=      5-min Rain = 0
KAI1 060845Z 12009KT 21/19 A3001 RMK A01 T02060187  RH  089%=      5-min Rain = 0
KAI1 060846Z 13009KT 21/19 A3001 RMK A01 T02060187  RH  089%=      5-min Rain = 0
KAI1 060847Z 13008KT 21/19 A3001 RMK A01 T02060187  RH  089%=      5-min Rain = 0
KAI1 060848Z 13008KT 21/19 A3001 RMK A01 T02060187  RH  089%=      5-min Rain = 0
KAI1 060849Z 13008KT 21/19 A3001 RMK A01 T02060187  RH  089%=      5-min Rain = 0
KAI1 060850Z 13008KT 21/19 A3001 RMK A01 T02050187  RH  089%=      5-min Rain = 0
KAI1 060851Z 13007KT 21/19 A3001 RMK A01 T02050187  RH  089%=      5-min Rain = 0
KAI1 060852Z 13008KT 21/19 A3001 RMK A01 T02050187  RH  089%=      5-min Rain = 0
KAI1 060853Z 13008KT 20/19 A3001 RMK A01 T02040187  RH  089%=      5-min Rain = 0
KAI1 060854Z 13009KT 20/19 A3001 RMK A01 T02040187  RH  090%=      5-min Rain = 0
KAI1 060855Z 13008KT 21/19 A3001 RMK A01 T02050187  RH  090%=      5-min Rain = 0
KAI1 060856Z 13008KT 20/19 A3001 RMK A01 T02040187  RH  090%=      5-min Rain = 0
KAI1 060857Z 13008KT 20/19 A3001 RMK A01 T02040187  RH  090%=      5-min Rain = 0
KAI1 060858Z 13008KT 20/19 A3001 RMK A01 T02040187  RH  090%=      5-min Rain = 0
KAI1 060859Z 13008KT 20/19 A3001 RMK A01 T02040187  RH  090%=      5-min Rain = 0
KAI1 060900Z 13008KT 20/19 A3001 RMK A01 T02040186  RH  090%=      5-min Rain = 0
KAI1 060901Z 13008KT 20/19 A3001 RMK A01 T02040186  RH  090%=      5-min Rain = 0
KAI1 060902Z 13007KT 20/19 A3001 RMK A01 T02030186  RH  090%=      5-min Rain = 0
KAI1 060903Z 13008KT 20/19 A3001 RMK A01 T02030186  RH  090%=      5-min Rain = 0
KAI1 060904Z 13007KT 20/19 A3001 RMK A01 T02030186  RH  090%=      5-min Rain = 0
KAI1 060905Z 13007KT 20/19 A3001 RMK A01 T02020186  RH  090%=      5-min Rain = 0
KAI1 060906Z 13008KT 20/19 A3001 RMK A01 T02020186  RH  090%=      5-min Rain = 0
KAI1 060907Z 13008KT 20/19 A3001 RMK A01 T02020186  RH  091%=      5-min Rain = 0
KAI1 060908Z 13007KT 20/19 A3001 RMK A01 T02020186  RH  091%=      5-min Rain = 0
KAI1 060909Z 13007KT 20/19 A3001 RMK A01 T02010186  RH  091%=      5-min Rain = 0
KAI1 060910Z 13007KT 20/19 A3001 RMK A01 T02010186  RH  091%=      5-min Rain = 0
KAI1 060911Z 13008KT 20/19 A3001 RMK A01 T02010186  RH  091%=      5-min Rain = 0
KAI1 060912Z 13007KT 20/19 A3001 RMK A01 T02010185  RH  091%=      5-min Rain = 0
KAI1 060913Z 13006KT 20/19 A3002 RMK A01 T02010186  RH  091%=      5-min Rain = 0
KAI1 060914Z 13007KT 20/19 A3002 RMK A01 T02010186  RH  091%=      5-min Rain = 0
KAI1 060915Z 14006KT 20/19 A3002 RMK A01 T02000185  RH  091%=      5-min Rain = 0
KAI1 060916Z 13006KT 20/19 A3002 RMK A01 T02000185  RH  091%=      5-min Rain = 0
KAI1 060917Z 13006KT 20/19 A3002 RMK A01 T02000186  RH  091%=      5-min Rain = 0
KAI1 060918Z 13006KT 20/19 A3002 RMK A01 T01990185  RH  091%=      5-min Rain = 0
KAI1 060919Z 13007KT 20/19 A3002 RMK A01 T01990185  RH  091%=      5-min Rain = 0
KAI1 060920Z 13006KT 20/19 A3002 RMK A01 T01990185  RH  091%=      5-min Rain = 0
KAI1 060921Z 13007KT 20/19 A3002 RMK A01 T01990185  RH  092%=      5-min Rain = 0
KAI1 060922Z 13007KT 20/19 A3002 RMK A01 T01990185  RH  092%=      5-min Rain = 0
KAI1 060923Z 13006KT 20/19 A3002 RMK A01 T01990185  RH  092%=      5-min Rain = 0
KAI1 060924Z 13006KT 20/19 A3002 RMK A01 T01990185  RH  092%=      5-min Rain = 0
KAI1 060925Z 13007KT 20/19 A3002 RMK A01 T01990185  RH  092%=      5-min Rain = 0
KAI1 060926Z 13006KT 20/19 A3002 RMK A01 T01990185  RH  092%=      5-min Rain = 0
KAI1 060927Z 13007KT 20/19 A3002 RMK A01 T01990185  RH  092%=      5-min Rain = 0
KAI1 060928Z 13007KT 20/19 A3002 RMK A01 T01980185  RH  092%=      5-min Rain = 0
KAI1 060929Z 13006KT 20/19 A3002 RMK A01 T01980185  RH  092%=      5-min Rain = 0
KAI1 060930Z 13006KT 20/19 A3002 RMK A01 T01980185  RH  092%=      5-min Rain = 0
KAI1 060931Z 13006KT 20/19 A3002 RMK A01 T01980185  RH  092%=      5-min Rain = 0
KAI1 060932Z 13006KT 20/19 A3002 RMK A01 T01980185  RH  092%=      5-min Rain = 0
KAI1 060933Z 13006KT 20/19 A3002 RMK A01 T01980185  RH  092%=      5-min Rain = 0
KAI1 060934Z 13006KT 20/19 A3002 RMK A01 T01980185  RH  092%=      5-min Rain = 0
KAI1 060935Z 13006KT 20/19 A3002 RMK A01 T01970185  RH  092%=      5-min Rain = 0
KAI1 060936Z 13007KT 20/19 A3002 RMK A01 T01980185  RH  092%=      5-min Rain = 0
KAI1 060937Z 12006KT 20/19 A3002 RMK A01 T01980185  RH  093%=      5-min Rain = 0
KAI1 060938Z 13006KT 20/19 A3002 RMK A01 T01980185  RH  093%=      5-min Rain = 0
KAI1 060939Z 13007KT 20/19 A3002 RMK A01 T01970185  RH  093%=      5-min Rain = 0
KAI1 060940Z 12006KT 20/19 A3002 RMK A01 T01980186  RH  093%=      5-min Rain = 0
KAI1 060941Z 12007KT 20/19 A3002 RMK A01 T01980186  RH  093%=      5-min Rain = 0
KAI1 060942Z 12007KT 20/19 A3002 RMK A01 T01980186  RH  093%=      5-min Rain = 0
KAI1 060943Z 12007KT 20/19 A3002 RMK A01 T01980186  RH  093%=      5-min Rain = 0
KAI1 060944Z 11007KT 20/19 A3002 RMK A01 T01970185  RH  093%=      5-min Rain = 0
KAI1 060945Z 11006KT 20/19 A3002 RMK A01 T01980186  RH  093%=      5-min Rain = 0
KAI1 060946Z 11007KT 20/19 A3002 RMK A01 T01980186  RH  093%=      5-min Rain = 0
KAI1 060947Z 11006KT 20/19 A3002 RMK A01 T01980186  RH  093%=      5-min Rain = 0
KAI1 060948Z 12006KT 20/19 A3002 RMK A01 T01970185  RH  093%=      5-min Rain = 0
KAI1 060949Z 11006KT 20/19 A3002 RMK A01 T01970185  RH  093%=      5-min Rain = 0
KAI1 060950Z 11006KT 20/19 A3002 RMK A01 T01970185  RH  093%=      5-min Rain = 0
KAI1 060951Z 10007KT 20/19 A3002 RMK A01 T01970186  RH  093%=      5-min Rain = 0
KAI1 060952Z 10007KT 20/19 A3002 RMK A01 T01970186  RH  093%=      5-min Rain = 0
KAI1 060953Z 10006KT 20/19 A3002 RMK A01 T01970186  RH  093%=      5-min Rain = 0
KAI1 060954Z 11006KT 20/19 A3002 RMK A01 T01970186  RH  093%=      5-min Rain = 0
KAI1 060955Z 11006KT 20/19 A3002 RMK A01 T01970186  RH  093%=      5-min Rain = 0
KAI1 060956Z 10006KT 20/19 A3002 RMK A01 T01970186  RH  093%=      5-min Rain = 0
KAI1 060957Z 10006KT 20/19 A3002 RMK A01 T01970186  RH  093%=      5-min Rain = 0
KAI1 060958Z 11006KT 20/19 A3002 RMK A01 T01970186  RH  093%=      5-min Rain = 0
KAI1 060959Z 11006KT 20/19 A3002 RMK A01 T01970186  RH  093%=      5-min Rain = 0
KAI1 061000Z 11006KT 20/19 A3002 RMK A01 T01970186  RH  094%=      5-min Rain = 0
KAI1 061001Z 11006KT 20/19 A3002 RMK A01 T01970186  RH  094%=      5-min Rain = 0
KAI1 061002Z 11007KT 20/19 A3002 RMK A01 T01970186  RH  094%=      5-min Rain = 0
KAI1 061003Z 10007KT 20/19 A3002 RMK A01 T01970186  RH  094%=      5-min Rain = 0
KAI1 061004Z 11006KT 20/19 A3002 RMK A01 T01970186  RH  093%=      5-min Rain = 0
KAI1 061005Z 12007KT 20/19 A3002 RMK A01 T01970186  RH  093%=      5-min Rain = 0
KAI1 061006Z 12007KT 20/19 A3002 RMK A01 T01970186  RH  093%=      5-min Rain = 0
KAI1 061007Z 12007KT 20/19 A3002 RMK A01 T01970187  RH  093%=      5-min Rain = 0
KAI1 061008Z 12006KT 20/19 A3002 RMK A01 T01970186  RH  093%=      5-min Rain = 0
KAI1 061009Z 12006KT 20/19 A3002 RMK A01 T01970186  RH  093%=      5-min Rain = 0
KAI1 061010Z 12006KT 20/19 A3002 RMK A01 T01970186  RH  093%=      5-min Rain = 0
KAI1 061011Z 13006KT 20/19 A3002 RMK A01 T01980186  RH  093%=      5-min Rain = 0
KAI1 061012Z 13006KT 20/19 A3002 RMK A01 T01980186  RH  093%=      5-min Rain = 0
KAI1 061013Z 13006KT 20/19 A3002 RMK A01 T01980186  RH  093%=      5-min Rain = 0
KAI1 061014Z 12006KT 20/19 A3002 RMK A01 T01980186  RH  092%=      5-min Rain = 0
KAI1 061015Z 13006KT 20/19 A3002 RMK A01 T01980186  RH  092%=      5-min Rain = 0
KAI1 061016Z 13006KT 20/19 A3002 RMK A01 T01990186  RH  092%=      5-min Rain = 0
KAI1 061017Z 13007KT 20/19 A3002 RMK A01 T01990186  RH  092%=      5-min Rain = 0
KAI1 061018Z 13007KT 20/19 A3002 RMK A01 T01980186  RH  092%=      5-min Rain = 0
KAI1 061019Z 13007KT 20/19 A3002 RMK A01 T01990186  RH  092%=      5-min Rain = 0
KAI1 061020Z 12007KT 20/19 A3002 RMK A01 T01990186  RH  092%=      5-min Rain = 0
KAI1 061021Z 13006KT 20/19 A3002 RMK A01 T01990186  RH  092%=      5-min Rain = 0
KAI1 061022Z 13007KT 20/19 A3002 RMK A01 T01990186  RH  092%=      5-min Rain = 0
KAI1 061023Z 12007KT 20/19 A3002 RMK A01 T01980185  RH  092%=      5-min Rain = 0
KAI1 061024Z 12006KT 20/19 A3002 RMK A01 T01990186  RH  092%=      5-min Rain = 0
KAI1 061025Z 13006KT 20/19 A3002 RMK A01 T01980185  RH  092%=      5-min Rain = 0
KAI1 061026Z 12006KT 20/19 A3002 RMK A01 T01990186  RH  092%=      5-min Rain = 0
KAI1 061027Z 12006KT 20/19 A3002 RMK A01 T01990185  RH  092%=      5-min Rain = 0
KAI1 061028Z 12006KT 20/19 A3002 RMK A01 T01990186  RH  092%=      5-min Rain = 0
KAI1 061029Z 13006KT 20/19 A3002 RMK A01 T01990186  RH  092%=      5-min Rain = 0
KAI1 061030Z 12006KT 20/19 A3002 RMK A01 T01990185  RH  092%=      5-min Rain = 0
KAI1 061031Z 12006KT 20/19 A3002 RMK A01 T01990186  RH  092%=      5-min Rain = 0
KAI1 061032Z 13006KT 20/19 A3002 RMK A01 T01980185  RH  092%=      5-min Rain = 0
KAI1 061033Z 13006KT 20/19 A3002 RMK A01 T01980186  RH  092%=      5-min Rain = 0
KAI1 061034Z 13006KT 20/19 A3002 RMK A01 T01990186  RH  092%=      5-min Rain = 0
KAI1 061035Z 12005KT 20/19 A3002 RMK A01 T01990186  RH  092%=      5-min Rain = 0
KAI1 061036Z 13005KT 20/19 A3002 RMK A01 T01990186  RH  092%=      5-min Rain = 0
KAI1 061037Z 12005KT 20/19 A3002 RMK A01 T01990186  RH  092%=      5-min Rain = 0
KAI1 061038Z 13005KT 20/19 A3002 RMK A01 T01990186  RH  092%=      5-min Rain = 0
KAI1 061039Z 13005KT 20/19 A3002 RMK A01 T01990186  RH  092%=      5-min Rain = 0
KAI1 061040Z 13005KT 20/19 A3002 RMK A01 T01990186  RH  092%=      5-min Rain = 0
KAI1 061041Z 13005KT 20/19 A3002 RMK A01 T01990186  RH  092%=      5-min Rain = 0
KAI1 061042Z 13004KT 20/19 A3002 RMK A01 T01990186  RH  092%=      5-min Rain = 0
KAI1 061043Z 13004KT 20/19 A3002 RMK A01 T01990186  RH  092%=      5-min Rain = 0
KAI1 061044Z 13004KT 20/19 A3002 RMK A01 T01990186  RH  092%=      5-min Rain = 0
KAI1 061045Z 13004KT 20/19 A3002 RMK A01 T01990186  RH  092%=      5-min Rain = 0
KAI1 061046Z 13004KT 20/19 A3002 RMK A01 T02000186  RH  092%=      5-min Rain = 0
KAI1 061047Z 13005KT 20/19 A3002 RMK A01 T02000186  RH  092%=      5-min Rain = 0
KAI1 061048Z 14004KT 20/19 A3002 RMK A01 T02000186  RH  092%=      5-min Rain = 0
KAI1 061049Z 14004KT 20/19 A3002 RMK A01 T02000186  RH  091%=      5-min Rain = 0
KAI1 061050Z 14004KT 20/19 A3002 RMK A01 T02000186  RH  091%=      5-min Rain = 0
KAI1 061051Z 14004KT 20/19 A3002 RMK A01 T02000186  RH  091%=      5-min Rain = 0
KAI1 061052Z 14004KT 20/19 A3002 RMK A01 T02000186  RH  092%=      5-min Rain = 0
KAI1 061053Z 15004KT 20/19 A3002 RMK A01 T02000186  RH  091%=      5-min Rain = 0
KAI1 061054Z 15004KT 20/19 A3002 RMK A01 T02000186  RH  091%=      5-min Rain = 0
KAI1 061055Z 15004KT 20/19 A3002 RMK A01 T02000186  RH  092%=      5-min Rain = 0
KAI1 061056Z 14004KT 20/19 A3002 RMK A01 T02000186  RH  091%=      5-min Rain = 0
KAI1 061057Z 15005KT 20/19 A3002 RMK A01 T02000186  RH  091%=      5-min Rain = 0
KAI1 061058Z 15005KT 20/19 A3002 RMK A01 T02010186  RH  091%=      5-min Rain = 0
KAI1 061059Z 15006KT 20/19 A3002 RMK A01 T02010186  RH  091%=      5-min Rain = 0
KAI1 061100Z 15006KT 20/19 A3002 RMK A01 T02010186  RH  091%=      5-min Rain = 0
KAI1 061101Z 15007KT 20/19 A3002 RMK A01 T02010186  RH  091%=      5-min Rain = 0
KAI1 061102Z 15007KT 20/19 A3002 RMK A01 T02020186  RH  091%=      5-min Rain = 0
KAI1 061103Z 14006KT 20/19 A3002 RMK A01 T02020186  RH  091%=      5-min Rain = 0
KAI1 061104Z 15006KT 20/19 A3002 RMK A01 T02020186  RH  090%=      5-min Rain = 0
KAI1 061105Z 15007KT 20/19 A3002 RMK A01 T02020186  RH  090%=      5-min Rain = 0
KAI1 061106Z 15006KT 20/19 A3002 RMK A01 T02030186  RH  090%=      5-min Rain = 0
KAI1 061107Z 14006KT 20/19 A3002 RMK A01 T02030186  RH  090%=      5-min Rain = 0
KAI1 061108Z 15006KT 20/19 A3002 RMK A01 T02030186  RH  090%=      5-min Rain = 0
KAI1 061109Z 15006KT 20/19 A3002 RMK A01 T02030186  RH  090%=      5-min Rain = 0
KAI1 061110Z 15006KT 20/19 A3002 RMK A01 T02040186  RH  090%=      5-min Rain = 0
KAI1 061111Z 15005KT 20/19 A3002 RMK A01 T02040186  RH  090%=      5-min Rain = 0
KAI1 061112Z 14006KT 20/19 A3003 RMK A01 T02040186  RH  090%=      5-min Rain = 0
KAI1 061113Z 14004KT 20/19 A3003 RMK A01 T02040187  RH  090%=      5-min Rain = 0
KAI1 061114Z 15005KT 20/19 A3003 RMK A01 T02040187  RH  090%=      5-min Rain = 0
KAI1 061115Z 14005KT 20/19 A3003 RMK A01 T02040186  RH  090%=      5-min Rain = 0
KAI1 061116Z 14004KT 20/19 A3003 RMK A01 T02040186  RH  090%=      5-min Rain = 0
KAI1 061117Z 13004KT 20/19 A3003 RMK A01 T02040186  RH  090%=      5-min Rain = 0
KAI1 061118Z 13004KT 20/19 A3003 RMK A01 T02040186  RH  090%=      5-min Rain = 0
KAI1 061119Z 13003KT 20/19 A3003 RMK A01 T02040186  RH  090%=      5-min Rain = 0
KAI1 061120Z 13002KT 20/19 A3004 RMK A01 T02040186  RH  090%=      5-min Rain = 0
KAI1 061121Z 13003KT 20/19 A3004 RMK A01 T02040186  RH  090%=      5-min Rain = 0
KAI1 061122Z 13003KT 20/19 A3004 RMK A01 T02040186  RH  089%=      5-min Rain = 0
KAI1 061123Z 13002KT 20/19 A3004 RMK A01 T02040187  RH  090%=      5-min Rain = 0
KAI1 061124Z 14003KT 20/19 A3004 RMK A01 T02040187  RH  090%=      5-min Rain = 0
KAI1 061125Z 13003KT 20/19 A3004 RMK A01 T02040186  RH  090%=      5-min Rain = 0
KAI1 061126Z 14003KT 20/19 A3004 RMK A01 T02040186  RH  090%=      5-min Rain = 0
KAI1 061127Z 14004KT 20/19 A3004 RMK A01 T02040187  RH  090%=      5-min Rain = 0
KAI1 061128Z 14004KT 20/19 A3004 RMK A01 T02040187  RH  090%=      5-min Rain = 0
KAI1 061129Z 14005KT 20/19 A3004 RMK A01 T02040187  RH  090%=      5-min Rain = 0
KAI1 061130Z 15004KT 20/19 A3003 RMK A01 T02040187  RH  090%=      5-min Rain = 0
KAI1 061131Z 14004KT 20/19 A3003 RMK A01 T02040187  RH  090%=      5-min Rain = 0
KAI1 061132Z 14005KT 20/19 A3003 RMK A01 T02040187  RH  090%=      5-min Rain = 0
KAI1 061133Z 14005KT 20/19 A3003 RMK A01 T02040187  RH  090%=      5-min Rain = 0
KAI1 061134Z 14005KT 20/19 A3003 RMK A01 T02040187  RH  090%=      5-min Rain = 0
KAI1 061135Z 14005KT 20/19 A3003 RMK A01 T02040187  RH  090%=      5-min Rain = 0
KAI1 061136Z 14005KT 20/19 A3004 RMK A01 T02040187  RH  090%=      5-min Rain = 0
KAI1 061137Z 14005KT 20/19 A3004 RMK A01 T02040187  RH  090%=      5-min Rain = 0
KAI1 061138Z 14005KT 20/19 A3004 RMK A01 T02030186  RH  090%=      5-min Rain = 0
KAI1 061139Z 14004KT 20/19 A3004 RMK A01 T02040186  RH  090%=      5-min Rain = 0
KAI1 061140Z 14005KT 20/19 A3004 RMK A01 T02040186  RH  090%=      5-min Rain = 0
KAI1 061141Z 13005KT 20/19 A3004 RMK A01 T02030186  RH  090%=      5-min Rain = 0
KAI1 061142Z 13005KT 20/19 A3004 RMK A01 T02040186  RH  090%=      5-min Rain = 0
KAI1 061143Z 13005KT 20/19 A3004 RMK A01 T02040187  RH  090%=      5-min Rain = 0
KAI1 061144Z 13005KT 20/19 A3004 RMK A01 T02040187  RH  090%=      5-min Rain = 0
KAI1 061145Z 14005KT 20/19 A3004 RMK A01 T02040187  RH  090%=      5-min Rain = 0
KAI1 061146Z 14005KT 20/19 A3004 RMK A01 T02040187  RH  090%=      5-min Rain = 0
KAI1 061147Z 14005KT 20/19 A3004 RMK A01 T02030187  RH  090%=      5-min Rain = 0
KAI1 061148Z 14005KT 20/19 A3004 RMK A01 T02030187  RH  090%=      5-min Rain = 0
KAI1 061149Z 14005KT 20/19 A3004 RMK A01 T02030187  RH  090%=      5-min Rain = 0
KAI1 061150Z 14005KT 20/19 A3004 RMK A01 T02030187  RH  090%=      5-min Rain = 0
KAI1 061151Z 14006KT 20/19 A3004 RMK A01 T02030187  RH  090%=      5-min Rain = 0
KAI1 061152Z 14005KT 20/19 A3004 RMK A01 T02030187  RH  090%=      5-min Rain = 0
KAI1 061153Z 14006KT 20/19 A3004 RMK A01 T02030186  RH  090%=      5-min Rain = 0
KAI1 061154Z 14006KT 20/19 A3004 RMK A01 T02030186  RH  090%=      5-min Rain = 0
KAI1 061155Z 15006KT 20/19 A3004 RMK A01 T02030186  RH  090%=      5-min Rain = 0
KAI1 061156Z 15006KT 20/19 A3004 RMK A01 T02040186  RH  090%=      5-min Rain = 0
KAI1 061157Z 15006KT 20/19 A3004 RMK A01 T02040186  RH  090%=      5-min Rain = 0
KAI1 061158Z 15007KT 20/19 A3004 RMK A01 T02030186  RH  090%=      5-min Rain = 0
KAI1 061159Z 15007KT 20/19 A3004 RMK A01 T02040186  RH  089%=      5-min Rain = 0
KAI1 061200Z 15007KT 20/19 A3004 RMK A01 T02040186  RH  089%=      5-min Rain = 0
KAI1 061201Z 14007KT 20/19 A3004 RMK A01 T02040186  RH  089%=      5-min Rain = 0
KAI1 061202Z 14007KT 21/19 A3004 RMK A01 T02050186  RH  089%=      5-min Rain = 0
KAI1 061203Z 15007KT 21/19 A3004 RMK A01 T02050186  RH  089%=      5-min Rain = 0
KAI1 061204Z 15007KT 21/19 A3004 RMK A01 T02050186  RH  089%=      5-min Rain = 0
KAI1 061205Z 15007KT 21/19 A3004 RMK A01 T02050185  RH  089%=      5-min Rain = 0
KAI1 061206Z 15006KT 21/19 A3004 RMK A01 T02050185  RH  088%=      5-min Rain = 0
KAI1 061207Z 15006KT 21/19 A3004 RMK A01 T02050185  RH  088%=      5-min Rain = 0
KAI1 061208Z 15007KT 21/19 A3004 RMK A01 T02050185  RH  088%=      5-min Rain = 0
KAI1 061209Z 15006KT 21/19 A3004 RMK A01 T02050185  RH  088%=      5-min Rain = 0
KAI1 061210Z 15006KT 21/19 A3004 RMK A01 T02050185  RH  088%=      5-min Rain = 0
KAI1 061211Z 15006KT 21/19 A3004 RMK A01 T02060185  RH  088%=      5-min Rain = 0
KAI1 061212Z 15006KT 21/19 A3004 RMK A01 T02060185  RH  088%=      5-min Rain = 0
KAI1 061213Z 15005KT 21/19 A3004 RMK A01 T02060185  RH  087%=      5-min Rain = 0
KAI1 061214Z 15005KT 21/19 A3004 RMK A01 T02070185  RH  087%=      5-min Rain = 0
KAI1 061215Z 15005KT 21/19 A3004 RMK A01 T02070185  RH  087%=      5-min Rain = 0
KAI1 061216Z 15005KT 21/19 A3004 RMK A01 T02070185  RH  087%=      5-min Rain = 0
KAI1 061217Z 15005KT 21/19 A3004 RMK A01 T02080185  RH  087%=      5-min Rain = 0
KAI1 061218Z 15005KT 21/19 A3004 RMK A01 T02080185  RH  087%=      5-min Rain = 0
KAI1 061219Z 15005KT 21/19 A3004 RMK A01 T02080185  RH  087%=      5-min Rain = 0
KAI1 061220Z 14005KT 21/19 A3004 RMK A01 T02080185  RH  087%=      5-min Rain = 0
KAI1 061221Z 15005KT 21/19 A3004 RMK A01 T02080185  RH  087%=      5-min Rain = 0
KAI1 061222Z 14005KT 21/19 A3004 RMK A01 T02080185  RH  086%=      5-min Rain = 0
KAI1 061223Z 15005KT 21/19 A3004 RMK A01 T02090185  RH  086%=      5-min Rain = 0
KAI1 061224Z 15005KT 21/19 A3004 RMK A01 T02100186  RH  086%=      5-min Rain = 0
KAI1 061225Z 15006KT 21/19 A3004 RMK A01 T02090185  RH  086%=      5-min Rain = 0
KAI1 061226Z 15006KT 21/19 A3004 RMK A01 T02100185  RH  086%=      5-min Rain = 0
KAI1 061227Z 15006KT 21/19 A3004 RMK A01 T02110185  RH  085%=      5-min Rain = 0
KAI1 061228Z 15005KT 21/18 A3004 RMK A01 T02110184  RH  085%=      5-min Rain = 0
KAI1 061229Z 16006KT 21/18 A3004 RMK A01 T02120184  RH  084%=      5-min Rain = 0
KAI1 061230Z 15006KT 21/18 A3004 RMK A01 T02130184  RH  084%=      5-min Rain = 0
KAI1 061231Z 16006KT 21/18 A3004 RMK A01 T02130184  RH  083%=      5-min Rain = 0
KAI1 061232Z 16006KT 21/18 A3004 RMK A01 T02140184  RH  083%=      5-min Rain = 0
KAI1 061233Z 15006KT 22/18 A3004 RMK A01 T02150183  RH  082%=      5-min Rain = 0
KAI1 061234Z 16007KT 22/18 A3004 RMK A01 T02160182  RH  081%=      5-min Rain = 0
KAI1 061235Z 16007KT 22/18 A3004 RMK A01 T02160181  RH  081%=      5-min Rain = 0
KAI1 061236Z 16007KT 22/18 A3004 RMK A01 T02180182  RH  080%=      5-min Rain = 0
KAI1 061237Z 17007KT 22/18 A3004 RMK A01 T02180181  RH  079%=      5-min Rain = 0
KAI1 061238Z 17007KT 22/18 A3004 RMK A01 T02190179  RH  078%=      5-min Rain = 0
KAI1 061239Z 17008KT 22/18 A3004 RMK A01 T02190179  RH  078%=      5-min Rain = 0
KAI1 061240Z 17008KT 22/18 A3004 RMK A01 T02200178  RH  077%=      5-min Rain = 0
KAI1 061241Z 17008KT 22/18 A3004 RMK A01 T02200178  RH  077%=      5-min Rain = 0
KAI1 061242Z 17007KT 22/18 A3004 RMK A01 T02210178  RH  077%=      5-min Rain = 0
KAI1 061243Z 17008KT 22/18 A3004 RMK A01 T02210177  RH  076%=      5-min Rain = 0
KAI1 061244Z 17008KT 22/18 A3004 RMK A01 T02210177  RH  076%=      5-min Rain = 0
KAI1 061245Z 17008KT 22/18 A3004 RMK A01 T02210177  RH  076%=      5-min Rain = 0
KAI1 061246Z 17007KT 22/18 A3004 RMK A01 T02210176  RH  076%=      5-min Rain = 0
KAI1 061247Z 17008KT 22/18 A3004 RMK A01 T02210177  RH  076%=      5-min Rain = 0
KAI1 061248Z 17008KT 22/18 A3004 RMK A01 T02210178  RH  076%=      5-min Rain = 0
KAI1 061249Z 17008KT 22/18 A3004 RMK A01 T02210178  RH  077%=      5-min Rain = 0
KAI1 061250Z 17008KT 22/18 A3004 RMK A01 T02210178  RH  077%=      5-min Rain = 0
KAI1 061251Z 17008KT 22/18 A3004 RMK A01 T02210177  RH  076%=      5-min Rain = 0
KAI1 061252Z 17008KT 22/18 A3004 RMK A01 T02210178  RH  077%=      5-min Rain = 0
KAI1 061253Z 17007KT 22/18 A3004 RMK A01 T02210178  RH  077%=      5-min Rain = 0
KAI1 061254Z 17007KT 22/18 A3004 RMK A01 T02210178  RH  077%=      5-min Rain = 0
KAI1 061255Z 17008KT 22/18 A3004 RMK A01 T02210177  RH  076%=      5-min Rain = 0
KAI1 061256Z 17008KT 22/18 A3004 RMK A01 T02210178  RH  077%=      5-min Rain = 0
KAI1 061257Z 17007KT 22/18 A3004 RMK A01 T02210178  RH  076%=      5-min Rain = 0
KAI1 061258Z 17007KT 22/18 A3004 RMK A01 T02210178  RH  076%=      5-min Rain = 0
KAI1 061259Z 18008KT 22/18 A3004 RMK A01 T02210178  RH  076%=      5-min Rain = 0
KAI1 061300Z 18007KT 22/18 A3004 RMK A01 T02220177  RH  076%=      5-min Rain = 0
KAI1 061301Z 18007KT 22/18 A3004 RMK A01 T02220177  RH  075%=      5-min Rain = 0
KAI1 061302Z 18008KT 22/18 A3004 RMK A01 T02230176  RH  075%=      5-min Rain = 0
KAI1 061303Z 18008KT 22/18 A3004 RMK A01 T02240176  RH  074%=      5-min Rain = 0
KAI1 061304Z 18007KT 22/18 A3004 RMK A01 T02240175  RH  074%=      5-min Rain = 0
KAI1 061305Z 18007KT 23/18 A3004 RMK A01 T02250175  RH  073%=      5-min Rain = 0
KAI1 061306Z 18007KT 23/18 A3004 RMK A01 T02260175  RH  073%=      5-min Rain = 0
KAI1 061307Z 18008KT 23/18 A3004 RMK A01 T02270175  RH  073%=      5-min Rain = 0
KAI1 061308Z 18008KT 23/18 A3004 RMK A01 T02270175  RH  072%=      5-min Rain = 0
KAI1 061309Z 18008KT 23/18 A3004 RMK A01 T02280175  RH  072%=      5-min Rain = 0
KAI1 061310Z 18008KT 23/18 A3004 RMK A01 T02290175  RH  072%=      5-min Rain = 0
KAI1 061311Z 18008KT 23/17 A3004 RMK A01 T02290173  RH  071%=      5-min Rain = 0
KAI1 061312Z 19008KT 23/17 A3004 RMK A01 T02300174  RH  071%=      5-min Rain = 0
KAI1 061313Z 19008KT 23/17 A3004 RMK A01 T02310173  RH  070%=      5-min Rain = 0
KAI1 061314Z 19008KT 23/17 A3004 RMK A01 T02320174  RH  070%=      5-min Rain = 0
KAI1 061315Z 19007KT 23/17 A3004 RMK A01 T02320174  RH  070%=      5-min Rain = 0
KAI1 061316Z 19008KT 23/17 A3004 RMK A01 T02340174  RH  069%=      5-min Rain = 0
KAI1 061317Z 19009KT 24/17 A3004 RMK A01 T02350173  RH  068%=      5-min Rain = 0
KAI1 061318Z 19008KT 24/17 A3004 RMK A01 T02370174  RH  068%=      5-min Rain = 0
KAI1 061319Z 19008KT 24/17 A3004 RMK A01 T02370174  RH  068%=      5-min Rain = 0
KAI1 061320Z 19009KT 24/17 A3004 RMK A01 T02380173  RH  067%=      5-min Rain = 0
KAI1 061321Z 20008KT 24/17 A3004 RMK A01 T02390173  RH  067%=      5-min Rain = 0
KAI1 061322Z 20008KT 24/17 A3004 RMK A01 T02390174  RH  067%=      5-min Rain = 0
KAI1 061323Z 20008KT 24/17 A3004 RMK A01 T02400173  RH  066%=      5-min Rain = 0
KAI1 061324Z 20008KT 24/17 A3004 RMK A01 T02410172  RH  065%=      5-min Rain = 0
KAI1 061325Z 20008KT 24/17 A3004 RMK A01 T02410171  RH  065%=      5-min Rain = 0
KAI1 061326Z 20009KT 24/17 A3004 RMK A01 T02420171  RH  064%=      5-min Rain = 0
KAI1 061327Z 20008KT 24/17 A3004 RMK A01 T02440169  RH  063%=      5-min Rain = 0
KAI1 061328Z 20009KT 25/17 A3004 RMK A01 T02450168  RH  062%=      5-min Rain = 0
KAI1 061329Z 20009KT 25/17 A3004 RMK A01 T02470167  RH  061%=      5-min Rain = 0
KAI1 061330Z 20009KT 25/17 A3004 RMK A01 T02480166  RH  060%=      5-min Rain = 0
KAI1 061331Z 20010KT 25/17 A3004 RMK A01 T02480165  RH  060%=      5-min Rain = 0
KAI1 061332Z 20010KT 25/17 A3004 RMK A01 T02490165  RH  060%=      5-min Rain = 0
KAI1 061333Z 20010KT 25/17 A3004 RMK A01 T02490165  RH  060%=      5-min Rain = 0
KAI1 061334Z 20009KT 25/17 A3004 RMK A01 T02490165  RH  060%=      5-min Rain = 0
KAI1 061335Z 21009KT 25/17 A3004 RMK A01 T02490165  RH  059%=      5-min Rain = 0
KAI1 061336Z 20009KT 25/16 A3004 RMK A01 T02490163  RH  059%=      5-min Rain = 0
KAI1 061337Z 20011KT 25/16 A3004 RMK A01 T02500162  RH  058%=      5-min Rain = 0
KAI1 061338Z 21012KT 25/16 A3004 RMK A01 T02500160  RH  057%=      5-min Rain = 0
KAI1 061339Z 20011KT 25/16 A3004 RMK A01 T02510159  RH  057%=      5-min Rain = 0
KAI1 061340Z 21010KT 25/16 A3004 RMK A01 T02510159  RH  057%=      5-min Rain = 0
KAI1 061341Z 20012KT 25/16 A3004 RMK A01 T02510158  RH  056%=      5-min Rain = 0
KAI1 061342Z 20011KT 25/16 A3004 RMK A01 T02520157  RH  056%=      5-min Rain = 0
KAI1 061343Z 20011KT 25/16 A3004 RMK A01 T02520158  RH  056%=      5-min Rain = 0
KAI1 061344Z 20012KT 25/16 A3004 RMK A01 T02520158  RH  056%=      5-min Rain = 0
KAI1 061345Z 20010KT 25/16 A3004 RMK A01 T02520158  RH  056%=      5-min Rain = 0
KAI1 061346Z 20011KT 25/16 A3004 RMK A01 T02510158  RH  056%=      5-min Rain = 0
KAI1 061347Z 20010KT 25/16 A3004 RMK A01 T02510158  RH  056%=      5-min Rain = 0
KAI1 061348Z 20009KT 25/16 A3004 RMK A01 T02510159  RH  056%=      5-min Rain = 0
KAI1 061349Z 20011KT 25/16 A3004 RMK A01 T02510159  RH  057%=      5-min Rain = 0
KAI1 061350Z 20009KT 25/16 A3004 RMK A01 T02500158  RH  056%=      5-min Rain = 0
KAI1 061351Z 20008KT 25/16 A3005 RMK A01 T02500159  RH  057%=      5-min Rain = 0
KAI1 061352Z 20009KT 25/16 A3005 RMK A01 T02500159  RH  057%=      5-min Rain = 0
KAI1 061353Z 20009KT 25/16 A3005 RMK A01 T02500158  RH  057%=      5-min Rain = 0
KAI1 061354Z 20011KT 25/16 A3005 RMK A01 T02500157  RH  056%=      5-min Rain = 0
KAI1 061355Z 20010KT 25/16 A3005 RMK A01 T02510157  RH  056%=      5-min Rain = 0
KAI1 061356Z 20010KT 25/16 A3005 RMK A01 T02510157  RH  056%=      5-min Rain = 0
KAI1 061357Z 21010KT 25/16 A3005 RMK A01 T02510157  RH  056%=      5-min Rain = 0
KAI1 061358Z 20009KT 25/16 A3005 RMK A01 T02510158  RH  056%=      5-min Rain = 0
KAI1 061359Z 21011KT 25/16 A3005 RMK A01 T02510157  RH  056%=      5-min Rain = 0
KAI1 061400Z 21011KT 25/16 A3005 RMK A01 T02520157  RH  056%=      5-min Rain = 0
KAI1 061401Z 20009KT 25/16 A3005 RMK A01 T02520157  RH  055%=      5-min Rain = 0
KAI1 061402Z 20010KT 25/16 A3004 RMK A01 T02520157  RH  055%=      5-min Rain = 0
KAI1 061403Z 20009KT 25/16 A3005 RMK A01 T02530157  RH  055%=      5-min Rain = 0
KAI1 061404Z 20011KT 25/16 A3005 RMK A01 T02530157  RH  055%=      5-min Rain = 0
KAI1 061405Z 20012KT 25/16 A3005 RMK A01 T02530157  RH  055%=      5-min Rain = 0
KAI1 061406Z 20012KT 25/16 A3005 RMK A01 T02540156  RH  055%=      5-min Rain = 0
KAI1 061407Z 21010KT 25/16 A3005 RMK A01 T02540157  RH  055%=      5-min Rain = 0
KAI1 061408Z 21012KT 25/16 A3005 RMK A01 T02540157  RH  055%=      5-min Rain = 0
KAI1 061409Z 20012KT 26/16 A3005 RMK A01 T02550156  RH  054%=      5-min Rain = 0
KAI1 061410Z 21011KT 25/16 A3005 RMK A01 T02540157  RH  055%=      5-min Rain = 0
KAI1 061411Z 21010KT 25/16 A3005 RMK A01 T02540157  RH  055%=      5-min Rain = 0
KAI1 061412Z 21012KT 26/16 A3005 RMK A01 T02550157  RH  055%=      5-min Rain = 0
KAI1 061413Z 21009KT 26/16 A3005 RMK A01 T02550158  RH  055%=      5-min Rain = 0
KAI1 061414Z 21008KT 26/16 A3005 RMK A01 T02550158  RH  055%=      5-min Rain = 0
KAI1 061415Z 21010KT 26/16 A3005 RMK A01 T02560159  RH  055%=      5-min Rain = 0
KAI1 061416Z 21011KT 26/16 A3005 RMK A01 T02560158  RH  055%=      5-min Rain = 0
KAI1 061417Z 20012KT 26/16 A3005 RMK A01 T02560158  RH  055%=      5-min Rain = 0
KAI1 061418Z 21012KT 26/16 A3005 RMK A01 T02570157  RH  054%=      5-min Rain = 0
KAI1 061419Z 21010KT 26/16 A3005 RMK A01 T02570158  RH  054%=      5-min Rain = 0
KAI1 061420Z 20012KT 26/16 A3005 RMK A01 T02570157  RH  054%=      5-min Rain = 0
KAI1 061421Z 21009KT 26/16 A3005 RMK A01 T02570158  RH  054%=      5-min Rain = 0
KAI1 061422Z 20011KT 26/16 A3005 RMK A01 T02570158  RH  054%=      5-min Rain = 0
KAI1 061423Z 20012KT 26/16 A3005 RMK A01 T02580158  RH  054%=      5-min Rain = 0
KAI1 061424Z 21013KT 26/16 A3005 RMK A01 T02580158  RH  054%=      5-min Rain = 0
KAI1 061425Z 20014KT 26/16 A3005 RMK A01 T02590157  RH  053%=      5-min Rain = 0
KAI1 061426Z 21012KT 26/16 A3005 RMK A01 T02590157  RH  053%=      5-min Rain = 0
KAI1 061427Z 21010KT 26/16 A3005 RMK A01 T02590159  RH  054%=      5-min Rain = 0
KAI1 061428Z 21011KT 26/16 A3005 RMK A01 T02590159  RH  054%=      5-min Rain = 0
KAI1 061429Z 21011KT 26/16 A3005 RMK A01 T02590158  RH  054%=      5-min Rain = 0
KAI1 061430Z 22012KT 26/16 A3005 RMK A01 T02600158  RH  054%=      5-min Rain = 0
KAI1 061431Z 21013KT 26/16 A3005 RMK A01 T02590157  RH  053%=      5-min Rain = 0
KAI1 061432Z 21013KT 26/16 A3005 RMK A01 T02600158  RH  053%=      5-min Rain = 0
KAI1 061433Z 21012KT 26/16 A3005 RMK A01 T02590157  RH  053%=      5-min Rain = 0
KAI1 061434Z 21011KT 26/16 A3005 RMK A01 T02600158  RH  053%=      5-min Rain = 0
KAI1 061435Z 22013KT 26/16 A3005 RMK A01 T02600159  RH  054%=      5-min Rain = 0
KAI1 061436Z 22011KT 26/16 A3005 RMK A01 T02600160  RH  054%=      5-min Rain = 0
KAI1 061437Z 22011KT 26/16 A3005 RMK A01 T02600160  RH  054%=      5-min Rain = 0
KAI1 061438Z 22014KT 26/16 A3005 RMK A01 T02620158  RH  053%=      5-min Rain = 0
KAI1 061439Z 21013KT 26/16 A3005 RMK A01 T02610158  RH  053%=      5-min Rain = 0
KAI1 061440Z 21013KT 26/16 A3005 RMK A01 T02610158  RH  053%=      5-min Rain = 0
KAI1 061441Z 21013KT 26/16 A3005 RMK A01 T02620158  RH  053%=      5-min Rain = 0
KAI1 061442Z 21014KT 26/16 A3005 RMK A01 T02620158  RH  053%=      5-min Rain = 0
KAI1 061443Z 22015KT 26/16 A3005 RMK A01 T02620158  RH  053%=      5-min Rain = 0
KAI1 061444Z 22013KT 26/16 A3005 RMK A01 T02630158  RH  053%=      5-min Rain = 0
KAI1 061445Z 21014KT 26/16 A3005 RMK A01 T02620159  RH  053%=      5-min Rain = 0
KAI1 061446Z 22014KT 26/16 A3005 RMK A01 T02630158  RH  052%=      5-min Rain = 0
KAI1 061447Z 21014KT 26/16 A3005 RMK A01 T02630158  RH  052%=      5-min Rain = 0
KAI1 061448Z 21015G20KT 26/16 A3005 RMK A01 T02640158  RH  052%=      5-min Rain = 0
KAI1 061449Z 21016KT 27/16 A3005 RMK A01 T02650158  RH  052%=      5-min Rain = 0
KAI1 061450Z 22015KT 27/16 A3005 RMK A01 T02650158  RH  052%=      5-min Rain = 0
KAI1 061451Z 22018KT 27/16 A3005 RMK A01 T02650158  RH  052%=      5-min Rain = 0
KAI1 061452Z 22016KT 27/16 A3005 RMK A01 T02650158  RH  052%=      5-min Rain = 0
KAI1 061453Z 21017KT 27/16 A3005 RMK A01 T02650157  RH  052%=      5-min Rain = 0
KAI1 061454Z 22016G22KT 27/16 A3005 RMK A01 T02650157  RH  051%=      5-min Rain = 0
KAI1 061455Z 21017KT 27/16 A3005 RMK A01 T02650157  RH  051%=      5-min Rain = 0
KAI1 061456Z 21018KT 27/16 A3005 RMK A01 T02660157  RH  051%=      5-min Rain = 0
KAI1 061457Z 22015KT 27/16 A3005 RMK A01 T02690158  RH  051%=      5-min Rain = 0
KAI1 061458Z 21017KT 27/16 A3005 RMK A01 T02730160  RH  050%=      5-min Rain = 0
KAI1 061459Z 21018KT 28/16 A3005 RMK A01 T02750158  RH  049%=      5-min Rain = 0
KAI1 061500Z 21018KT 28/16 A3005 RMK A01 T02750158  RH  049%=      5-min Rain = 0
KAI1 061501Z 22018KT 28/16 A3005 RMK A01 T02750159  RH  049%=      5-min Rain = 0
KAI1 061502Z 22018KT 28/16 A3005 RMK A01 T02750159  RH  049%=      5-min Rain = 0
KAI1 061503Z 21015G21KT 28/16 A3005 RMK A01 T02770160  RH  049%=      5-min Rain = 0
KAI1 061504Z 21017KT 28/16 A3005 RMK A01 T02780159  RH  048%=      5-min Rain = 0
KAI1 061505Z 21017KT 28/16 A3005 RMK A01 T02790160  RH  048%=      5-min Rain = 0
KAI1 061506Z 21016KT 28/16 A3005 RMK A01 T02800160  RH  048%=      5-min Rain = 0
KAI1 061507Z 21016KT 28/16 A3005 RMK A01 T02790161  RH  048%=      5-min Rain = 0
KAI1 061508Z 20015G20KT 28/16 A3005 RMK A01 T02780160  RH  048%=      5-min Rain = 0
KAI1 061509Z 20018KT 28/16 A3005 RMK A01 T02780159  RH  048%=      5-min Rain = 0
KAI1 061510Z 20017KT 28/16 A3005 RMK A01 T02780158  RH  048%=      5-min Rain = 0
KAI1 061511Z 20017KT 28/16 A3005 RMK A01 T02770158  RH  048%=      5-min Rain = 0
KAI1 061512Z 21017G22KT 28/16 A3005 RMK A01 T02780159  RH  048%=      5-min Rain = 0
KAI1 061513Z 21018KT 28/16 A3005 RMK A01 T02790157  RH  047%=      5-min Rain = 0
KAI1 061514Z 20019KT 28/16 A3005 RMK A01 T02810157  RH  047%=      5-min Rain = 0
KAI1 061515Z 20019KT 28/16 A3005 RMK A01 T02820158  RH  047%=      5-min Rain = 0
KAI1 061516Z 20018G23KT 28/16 A3005 RMK A01 T02840159  RH  047%=      5-min Rain = 0
KAI1 061517Z 20018G23KT 29/16 A3005 RMK A01 T02880160  RH  046%=      5-min Rain = 0
KAI1 061518Z 20021KT 29/16 A3005 RMK A01 T02900158  RH  045%=      5-min Rain = 0
KAI1 061519Z 21019KT 29/16 A3005 RMK A01 T02890158  RH  045%=      5-min Rain = 0
KAI1 061520Z 21018KT 29/16 A3005 RMK A01 T02880158  RH  045%=      5-min Rain = 0
KAI1 061521Z 21019KT 29/16 A3005 RMK A01 T02870158  RH  045%=      5-min Rain = 0
KAI1 061522Z 21018KT 29/16 A3005 RMK A01 T02850157  RH  046%=      5-min Rain = 0
KAI1 061523Z 21017KT 29/16 A3005 RMK A01 T02850157  RH  046%=      5-min Rain = 0
KAI1 061524Z 21016KT 29/16 A3005 RMK A01 T02850158  RH  046%=      5-min Rain = 0
KAI1 061525Z 21018KT 28/16 A3005 RMK A01 T02840157  RH  046%=      5-min Rain = 0
KAI1 061526Z 21017KT 28/16 A3005 RMK A01 T02830157  RH  046%=      5-min Rain = 0
KAI1 061527Z 21017KT 28/16 A3005 RMK A01 T02830156  RH  046%=      5-min Rain = 0
KAI1 061528Z 21015KT 28/16 A3005 RMK A01 T02820158  RH  047%=      5-min Rain = 0
KAI1 061529Z 20019KT 28/16 A3005 RMK A01 T02830157  RH  046%=      5-min Rain = 0
KAI1 061530Z 20017KT 28/16 A3005 RMK A01 T02830156  RH  046%=      5-min Rain = 0
KAI1 061531Z 20016KT 28/16 A3005 RMK A01 T02830155  RH  046%=      5-min Rain = 0
KAI1 061532Z 21018KT 28/16 A3005 RMK A01 T02830155  RH  046%=      5-min Rain = 0
KAI1 061533Z 21017KT 28/16 A3005 RMK A01 T02820155  RH  046%=      5-min Rain = 0
KAI1 061534Z 21017KT 28/16 A3005 RMK A01 T02820155  RH  046%=      5-min Rain = 0
KAI1 061535Z 21018KT 28/15 A3005 RMK A01 T02810154  RH  046%=      5-min Rain = 0
KAI1 061536Z 21017KT 28/15 A3005 RMK A01 T02820154  RH  046%=      5-min Rain = 0
KAI1 061537Z 21016KT 28/16 A3005 RMK A01 T02820155  RH  046%=      5-min Rain = 0
KAI1 061538Z 21016KT 28/16 A3005 RMK A01 T02820155  RH  046%=      5-min Rain = 0
KAI1 061539Z 21016KT 28/16 A3005 RMK A01 T02830157  RH  046%=      5-min Rain = 0
KAI1 061540Z 20015KT 28/16 A3005 RMK A01 T02840158  RH  046%=      5-min Rain = 0
KAI1 061541Z 20017KT 29/16 A3005 RMK A01 T02850158  RH  046%=      5-min Rain = 0
KAI1 061542Z 20017KT 29/16 A3005 RMK A01 T02860159  RH  046%=      5-min Rain = 0
KAI1 061543Z 20014KT 29/16 A3005 RMK A01 T02860156  RH  045%=      5-min Rain = 0
KAI1 061544Z 20015KT 29/16 A3005 RMK A01 T02890160  RH  046%=      5-min Rain = 0
KAI1 061545Z 21019KT 29/16 A3005 RMK A01 T02910157  RH  044%=      5-min Rain = 0
KAI1 061546Z 21016KT 29/16 A3005 RMK A01 T02900156  RH  044%=      5-min Rain = 0
KAI1 061547Z 20015KT 29/16 A3005 RMK A01 T02880157  RH  045%=      5-min Rain = 0
KAI1 061548Z 21014KT 29/16 A3005 RMK A01 T02890158  RH  045%=      5-min Rain = 0
KAI1 061549Z 21017KT 29/16 A3005 RMK A01 T02890157  RH  045%=      5-min Rain = 0
KAI1 061550Z 21014KT 29/16 A3005 RMK A01 T02880157  RH  045%=      5-min Rain = 0
KAI1 061551Z 21015G20KT 29/16 A3005 RMK A01 T02880157  RH  045%=      5-min Rain = 0
KAI1 061552Z 20014KT 29/16 A3005 RMK A01 T02870158  RH  045%=      5-min Rain = 0
KAI1 061553Z 21015KT 29/16 A3005 RMK A01 T02870158  RH  046%=      5-min Rain = 0
KAI1 061554Z 21017KT 29/16 A3005 RMK A01 T02870156  RH  045%=      5-min Rain = 0
KAI1 061555Z 20018KT 29/15 A3005 RMK A01 T02860154  RH  045%=      5-min Rain = 0
KAI1 061556Z 20018KT 29/16 A3005 RMK A01 T02860155  RH  045%=      5-min Rain = 0
KAI1 061557Z 20017KT 29/16 A3005 RMK A01 T02860155  RH  045%=      5-min Rain = 0
KAI1 061558Z 20016G21KT 29/16 A3005 RMK A01 T02870155  RH  045%=      5-min Rain = 0
KAI1 061559Z 20019KT 29/15 A3005 RMK A01 T02880153  RH  044%=      5-min Rain = 0
KAI1 061600Z 20021KT 29/15 A3005 RMK A01 T02890152  RH  043%=      5-min Rain = 0
KAI1 061601Z 20021KT 29/15 A3005 RMK A01 T02920154  RH  043%=      5-min Rain = 0
KAI1 061602Z 20018KT 29/15 A3005 RMK A01 T02940154  RH  042%=      5-min Rain = 0
KAI1 061603Z 20019KT 30/15 A3005 RMK A01 T02970154  RH  042%=      5-min Rain = 0
KAI1 061604Z 20017KT 30/16 A3005 RMK A01 T03000156  RH  042%=      5-min Rain = 0
KAI1 061605Z 20020KT 30/16 A3005 RMK A01 T03020155  RH  041%=      5-min Rain = 0
KAI1 061606Z 21016KT 30/16 A3005 RMK A01 T03010155  RH  041%=      5-min Rain = 0
KAI1 061607Z 20017KT 30/15 A3005 RMK A01 T03010154  RH  041%=      5-min Rain = 0
KAI1 061608Z 21018KT 30/15 A3005 RMK A01 T03020151  RH  040%=      5-min Rain = 0
KAI1 061609Z 22017G22KT 31/15 A3005 RMK A01 T03050152  RH  039%=      5-min Rain = 0
KAI1 061610Z 22019KT 31/15 A3005 RMK A01 T03070151  RH  039%=      5-min Rain = 0
KAI1 061611Z 21015KT 31/15 A3005 RMK A01 T03070153  RH  039%=      5-min Rain = 0
KAI1 061612Z 21017KT 31/15 A3005 RMK A01 T03070151  RH  039%=      5-min Rain = 0
KAI1 061613Z 21016KT 31/15 A3005 RMK A01 T03070150  RH  038%=      5-min Rain = 0
KAI1 061614Z 21017G23KT 31/15 A3005 RMK A01 T03090151  RH  038%=      5-min Rain = 0
KAI1 061615Z 22019KT 31/15 A3005 RMK A01 T03100151  RH  038%=      5-min Rain = 0
KAI1 061616Z 22017KT 31/15 A3005 RMK A01 T03100147  RH  037%=      5-min Rain = 0
KAI1 061617Z 22017KT 31/15 A3005 RMK A01 T03110147  RH  037%=      5-min Rain = 0
KAI1 061618Z 21016KT 31/15 A3005 RMK A01 T03110150  RH  038%=      5-min Rain = 0
KAI1 061619Z 21020KT 31/15 A3005 RMK A01 T03120148  RH  037%=      5-min Rain = 0
KAI1 061620Z 22019KT 31/15 A3005 RMK A01 T03090147  RH  037%=      5-min Rain = 0
KAI1 061621Z 22018KT 31/15 A3005 RMK A01 T03080145  RH  037%=      5-min Rain = 0
KAI1 061622Z 22016KT 31/15 A3005 RMK A01 T03090146  RH  037%=      5-min Rain = 0
KAI1 061623Z 22017KT 31/15 A3005 RMK A01 T03100147  RH  037%=      5-min Rain = 0
KAI1 061624Z 22014KT 31/15 A3005 RMK A01 T03080149  RH  038%=      5-min Rain = 0
KAI1 061625Z 22017KT 31/15 A3005 RMK A01 T03090148  RH  038%=      5-min Rain = 0
KAI1 061626Z 22018KT 31/15 A3005 RMK A01 T03060146  RH  038%=      5-min Rain = 0
KAI1 061627Z 21018KT 30/15 A3005 RMK A01 T03040145  RH  038%=      5-min Rain = 0
KAI1 061628Z 21017G22KT 31/15 A3005 RMK A01 T03060145  RH  038%=      5-min Rain = 0
KAI1 061629Z 21017KT 31/14 A3005 RMK A01 T03080144  RH  037%=      5-min Rain = 0
KAI1 061630Z 21018KT 31/14 A3005 RMK A01 T03080143  RH  037%=      5-min Rain = 0
KAI1 061631Z 21017KT 31/14 A3005 RMK A01 T03090144  RH  037%=      5-min Rain = 0
KAI1 061632Z 21016KT 31/14 A3005 RMK A01 T03090144  RH  037%=      5-min Rain = 0
KAI1 061633Z 20017KT 31/15 A3005 RMK A01 T03110148  RH  037%=      5-min Rain = 0
KAI1 061634Z 20015KT 31/15 A3005 RMK A01 T03120148  RH  037%=      5-min Rain = 0
KAI1 061635Z 20014KT 31/15 A3005 RMK A01 T03110151  RH  038%=      5-min Rain = 0
KAI1 061636Z 21015KT 31/15 A3005 RMK A01 T03120152  RH  038%=      5-min Rain = 0
KAI1 061637Z 22017KT 31/15 A3005 RMK A01 T03130150  RH  037%=      5-min Rain = 0
KAI1 061638Z 22013KT 31/15 A3005 RMK A01 T03120151  RH  038%=      5-min Rain = 0
KAI1 061639Z 21013KT 32/16 A3005 RMK A01 T03170156  RH  038%=      5-min Rain = 0
KAI1 061640Z 20012KT 32/16 A3005 RMK A01 T03210156  RH  037%=      5-min Rain = 0
KAI1 061641Z 20015KT 32/15 A3005 RMK A01 T03210152  RH  036%=      5-min Rain = 0
KAI1 061642Z 21016KT 32/15 A3005 RMK A01 T03200150  RH  036%=      5-min Rain = 0
KAI1 061643Z 21018KT 32/15 A3005 RMK A01 T03160146  RH  036%=      5-min Rain = 0
KAI1 061644Z 21014KT 31/15 A3005 RMK A01 T03140147  RH  036%=      5-min Rain = 0
KAI1 061645Z 20015KT 32/15 A3004 RMK A01 T03160149  RH  036%=      5-min Rain = 0
KAI1 061646Z 21013KT 32/15 A3005 RMK A01 T03210152  RH  036%=      5-min Rain = 0
KAI1 061647Z 20017KT 32/15 A3005 RMK A01 T03230150  RH  035%=      5-min Rain = 0
KAI1 061648Z 21017KT 32/15 A3004 RMK A01 T03190148  RH  036%=      5-min Rain = 0
KAI1 061649Z 21014KT 32/14 A3005 RMK A01 T03170142  RH  034%=      5-min Rain = 0
KAI1 061650Z 21015KT 32/14 A3005 RMK A01 T03160142  RH  035%=      5-min Rain = 0
KAI1 061651Z 22013KT 32/14 A3004 RMK A01 T03170144  RH  035%=      5-min Rain = 0
KAI1 061652Z 21013KT 32/15 A3005 RMK A01 T03200151  RH  036%=      5-min Rain = 0
KAI1 061653Z 19012KT 32/15 A3005 RMK A01 T03210152  RH  036%=      5-min Rain = 0
KAI1 061654Z 19013KT 32/16 A3004 RMK A01 T03210155  RH  037%=      5-min Rain = 0
KAI1 061655Z 20014KT 32/15 A3004 RMK A01 T03220153  RH  036%=      5-min Rain = 0
KAI1 061656Z 20011KT 32/15 A3004 RMK A01 T03200154  RH  037%=      5-min Rain = 0
KAI1 061657Z 20012G17KT 32/16 A3004 RMK A01 T03210156  RH  037%=      5-min Rain = 0
KAI1 061658Z 19015KT 32/15 A3004 RMK A01 T03230154  RH  036%=      5-min Rain = 0
KAI1 061659Z 20013KT 32/15 A3004 RMK A01 T03220154  RH  036%=      5-min Rain = 0
KAI1 061700Z 20012KT 32/16 A3004 RMK A01 T03240155  RH  036%=      5-min Rain = 0
KAI1 061701Z 22012KT 32/15 A3004 RMK A01 T03240154  RH  036%=      5-min Rain = 0
KAI1 061702Z 22011KT 33/16 A3005 RMK A01 T03270155  RH  035%=      5-min Rain = 0
KAI1 061703Z 21014KT 33/16 A3004 RMK A01 T03300156  RH  035%=      5-min Rain = 0
KAI1 061704Z 22015KT 33/15 A3004 RMK A01 T03290153  RH  035%=      5-min Rain = 0
KAI1 061705Z 20015KT 33/15 A3004 RMK A01 T03280147  RH  034%=      5-min Rain = 0
KAI1 061706Z 20015KT 33/15 A3004 RMK A01 T03260146  RH  034%=      5-min Rain = 0
KAI1 061707Z 21015KT 33/15 A3004 RMK A01 T03260145  RH  034%=      5-min Rain = 0
KAI1 061708Z 22013KT 33/15 A3004 RMK A01 T03270148  RH  034%=      5-min Rain = 0
KAI1 061709Z 22013KT 33/15 A3004 RMK A01 T03310148  RH  033%=      5-min Rain = 0
KAI1 061710Z 20015KT 33/15 A3004 RMK A01 T03320146  RH  033%=      5-min Rain = 0
KAI1 061711Z 19014KT 33/15 A3004 RMK A01 T03310146  RH  033%=      5-min Rain = 0
KAI1 061712Z 19014KT 33/15 A3004 RMK A01 T03300146  RH  033%=      5-min Rain = 0
KAI1 061713Z 19016KT 33/15 A3004 RMK A01 T03300147  RH  033%=      5-min Rain = 0
KAI1 061714Z 19013KT 33/15 A3004 RMK A01 T03280147  RH  034%=      5-min Rain = 0
KAI1 061715Z 20013KT 33/15 A3004 RMK A01 T03260148  RH  034%=      5-min Rain = 0
KAI1 061716Z 20015KT 33/14 A3004 RMK A01 T03270143  RH  033%=      5-min Rain = 0
KAI1 061717Z 20016KT 33/14 A3004 RMK A01 T03280143  RH  033%=      5-min Rain = 0
KAI1 061718Z 20014KT 33/14 A3004 RMK A01 T03280144  RH  033%=      5-min Rain = 0
KAI1 061719Z 20012KT 33/15 A3004 RMK A01 T03280146  RH  033%=      5-min Rain = 0
KAI1 061720Z 20015KT 33/14 A3004 RMK A01 T03270143  RH  033%=      5-min Rain = 0
KAI1 061721Z 21015KT 33/14 A3004 RMK A01 T03270140  RH  032%=      5-min Rain = 0
KAI1 061722Z 21014KT 33/14 A3004 RMK A01 T03250141  RH  033%=      5-min Rain = 0
KAI1 061723Z 21012KT 33/15 A3004 RMK A01 T03250145  RH  034%=      5-min Rain = 0
KAI1 061724Z 22014KT 33/15 A3004 RMK A01 T03260146  RH  034%=      5-min Rain = 0
KAI1 061725Z 22016KT 33/15 A3004 RMK A01 T03260145  RH  034%=      5-min Rain = 0
KAI1 061726Z 20012KT 33/15 A3004 RMK A01 T03260146  RH  034%=      5-min Rain = 0
KAI1 061727Z 20017KT 33/14 A3004 RMK A01 T03310143  RH  032%=      5-min Rain = 0
KAI1 061728Z 21017KT 33/14 A3004 RMK A01 T03300138  RH  031%=      5-min Rain = 0
KAI1 061729Z 21016KT 33/13 A3004 RMK A01 T03280134  RH  031%=      5-min Rain = 0
KAI1 061730Z 20018KT 33/14 A3004 RMK A01 T03290139  RH  032%=      5-min Rain = 0
KAI1 061731Z 21017KT 33/14 A3004 RMK A01 T03320142  RH  032%=      5-min Rain = 0
KAI1 061732Z 20016KT 33/14 A3004 RMK A01 T03300139  RH  032%=      5-min Rain = 0
KAI1 061733Z 20015KT 33/14 A3004 RMK A01 T03320141  RH  032%=      5-min Rain = 0
KAI1 061734Z 21016KT 34/14 A3004 RMK A01 T03360144  RH  031%=      5-min Rain = 0
KAI1 061735Z 22014KT 33/14 A3004 RMK A01 T03340141  RH  031%=      5-min Rain = 0
KAI1 061736Z 21014G19KT 33/14 A3004 RMK A01 T03340140  RH  031%=      5-min Rain = 0
KAI1 061737Z 20013KT 33/14 A3004 RMK A01 T03340142  RH  031%=      5-min Rain = 0
KAI1 061738Z 20012KT 33/14 A3004 RMK A01 T03340140  RH  031%=      5-min Rain = 0
KAI1 061739Z 20016KT 34/14 A3004 RMK A01 T03350143  RH  031%=      5-min Rain = 0
KAI1 061740Z 21014KT 34/14 A3004 RMK A01 T03370137  RH  030%=      5-min Rain = 0
KAI1 061741Z 21014KT 34/14 A3004 RMK A01 T03390138  RH  030%=      5-min Rain = 0
KAI1 061742Z 20014KT 34/14 A3004 RMK A01 T03380139  RH  030%=      5-min Rain = 0
KAI1 061743Z 21013KT 34/14 A3004 RMK A01 T03370141  RH  031%=      5-min Rain = 0
KAI1 061744Z 20012KT 34/14 A3004 RMK A01 T03370143  RH  031%=      5-min Rain = 0
KAI1 061745Z 20013KT 34/15 A3004 RMK A01 T03380145  RH  031%=      5-min Rain = 0
KAI1 061746Z 20013KT 34/14 A3004 RMK A01 T03380136  RH  030%=      5-min Rain = 0
KAI1 061747Z 20012KT 34/14 A3004 RMK A01 T03360141  RH  031%=      5-min Rain = 0
KAI1 061748Z 19013KT 34/14 A3004 RMK A01 T03360144  RH  031%=      5-min Rain = 0
KAI1 061749Z 20014KT 34/14 A3004 RMK A01 T03370142  RH  031%=      5-min Rain = 0
KAI1 061750Z 21011KT 34/15 A3004 RMK A01 T03400145  RH  031%=      5-min Rain = 0
KAI1 061751Z 20012KT 35/14 A3004 RMK A01 T03490140  RH  029%=      5-min Rain = 0
KAI1 061752Z 19016KT 35/14 A3004 RMK A01 T03510144  RH  029%=      5-min Rain = 0
KAI1 061753Z 20016KT 35/14 A3004 RMK A01 T03460142  RH  029%=      5-min Rain = 0
KAI1 061754Z 21013KT 34/14 A3004 RMK A01 T03400140  RH  030%=      5-min Rain = 0
KAI1 061755Z 20012KT 34/14 A3004 RMK A01 T03370143  RH  031%=      5-min Rain = 0
KAI1 061756Z 20015KT 34/14 A3004 RMK A01 T03360139  RH  031%=      5-min Rain = 0
KAI1 061757Z 19013KT 33/14 A3004 RMK A01 T03330141  RH  031%=      5-min Rain = 0
KAI1 061758Z 21012KT 33/15 A3004 RMK A01 T03320145  RH  032%=      5-min Rain = 0
KAI1 061759Z 21011KT 33/15 A3004 RMK A01 T03340146  RH  032%=      5-min Rain = 0
KAI1 061800Z 22013KT 34/14 A3004 RMK A01 T03360143  RH  031%=      5-min Rain = 0
KAI1 061801Z 20017KT 34/14 A3004 RMK A01 T03360141  RH  031%=      5-min Rain = 0
KAI1 061802Z 20015KT 33/14 A3004 RMK A01 T03340136  RH  030%=      5-min Rain = 0
KAI1 061803Z 20015KT 33/14 A3004 RMK A01 T03330135  RH  030%=      5-min Rain = 0
KAI1 061804Z 20016KT 33/13 A3004 RMK A01 T03340133  RH  030%=      5-min Rain = 0
KAI1 061805Z 20015KT 34/14 A3004 RMK A01 T03360135  RH  030%=      5-min Rain = 0
KAI1 061806Z 21013KT 34/14 A3004 RMK A01 T03360137  RH  030%=      5-min Rain = 0
KAI1 061807Z 21014KT 34/14 A3004 RMK A01 T03360138  RH  030%=      5-min Rain = 0
KAI1 061808Z 19015KT 34/14 A3004 RMK A01 T03360140  RH  031%=      5-min Rain = 0
KAI1 061809Z 19014KT 34/14 A3004 RMK A01 T03360138  RH  030%=      5-min Rain = 0
KAI1 061810Z 21014KT 34/14 A3004 RMK A01 T03350137  RH  030%=      5-min Rain = 0
KAI1 061811Z 21012KT 33/14 A3004 RMK A01 T03340135  RH  030%=      5-min Rain = 0
KAI1 061812Z 21010KT 33/14 A3004 RMK A01 T03340138  RH  031%=      5-min Rain = 0
KAI1 061813Z 20013KT 34/14 A3004 RMK A01 T03370141  RH  031%=      5-min Rain = 0
KAI1 061814Z 20014KT 34/14 A3004 RMK A01 T03400144  RH  031%=      5-min Rain = 0
KAI1 061815Z 20013KT 34/14 A3004 RMK A01 T03410140  RH  030%=      5-min Rain = 0
KAI1 061816Z 21015KT 34/14 A3004 RMK A01 T03420140  RH  030%=      5-min Rain = 0
KAI1 061817Z 22013KT 34/14 A3004 RMK A01 T03420140  RH  030%=      5-min Rain = 0
KAI1 061818Z 20013KT 34/15 A3004 RMK A01 T03430145  RH  031%=      5-min Rain = 0
KAI1 061819Z 20013KT 35/15 A3004 RMK A01 T03450146  RH  030%=      5-min Rain = 0
KAI1 061820Z 20009KT 34/14 A3004 RMK A01 T03420144  RH  030%=      5-min Rain = 0
KAI1 061821Z 20011G16KT 34/15 A3004 RMK A01 T03410145  RH  031%=      5-min Rain = 0
KAI1 061822Z 19012KT 34/14 A3004 RMK A01 T03420142  RH  030%=      5-min Rain = 0
KAI1 061823Z 20012KT 34/15 A3004 RMK A01 T03440145  RH  030%=      5-min Rain = 0
KAI1 061824Z 20013KT 35/14 A3004 RMK A01 T03480142  RH  029%=      5-min Rain = 0
KAI1 061825Z 20012KT 35/14 A3004 RMK A01 T03460141  RH  029%=      5-min Rain = 0
KAI1 061826Z 21011KT 35/14 A3004 RMK A01 T03450141  RH  029%=      5-min Rain = 0
KAI1 061827Z 20012KT 34/15 A3004 RMK A01 T03440145  RH  030%=      5-min Rain = 0
KAI1 061828Z 20012KT 34/15 A3004 RMK A01 T03430151  RH  032%=      5-min Rain = 0
KAI1 061829Z 18012KT 34/15 A3004 RMK A01 T03440154  RH  032%=      5-min Rain = 0
KAI1 061830Z 20010KT 35/14 A3004 RMK A01 T03450140  RH  029%=      5-min Rain = 0
KAI1 061831Z 20010KT 34/14 A3004 RMK A01 T03440136  RH  029%=      5-min Rain = 0
KAI1 061832Z 20013KT 34/14 A3003 RMK A01 T03440142  RH  030%=      5-min Rain = 0
KAI1 061833Z 20012KT 35/14 A3003 RMK A01 T03470141  RH  029%=      5-min Rain = 0
KAI1 061834Z 20011KT 35/14 A3003 RMK A01 T03460144  RH  030%=      5-min Rain = 0
KAI1 061835Z 20011KT 35/15 A3003 RMK A01 T03450145  RH  030%=      5-min Rain = 0
KAI1 061836Z 20010KT 34/14 A3003 RMK A01 T03420144  RH  031%=      5-min Rain = 0
KAI1 061837Z 20010KT 34/15 A3003 RMK A01 T03410145  RH  031%=      5-min Rain = 0
KAI1 061838Z 20012KT 34/15 A3003 RMK A01 T03430147  RH  031%=      5-min Rain = 0
KAI1 061839Z 19014KT 34/14 A3003 RMK A01 T03420142  RH  030%=      5-min Rain = 0
KAI1 061840Z 19012KT 34/14 A3003 RMK A01 T03420140  RH  030%=      5-min Rain = 0
KAI1 061841Z 19010KT 34/14 A3003 RMK A01 T03410138  RH  029%=      5-min Rain = 0
KAI1 061842Z 19011KT 34/14 A3003 RMK A01 T03410137  RH  029%=      5-min Rain = 0
KAI1 061843Z 20011KT 34/13 A3003 RMK A01 T03390132  RH  029%=      5-min Rain = 0
KAI1 061844Z 18015KT 34/14 A3003 RMK A01 T03390136  RH  029%=      5-min Rain = 0
KAI1 061845Z 21014KT 34/14 A3003 RMK A01 T03430136  RH  029%=      5-min Rain = 0
KAI1 061846Z 22011KT 34/13 A3003 RMK A01 T03430133  RH  028%=      5-min Rain = 0
KAI1 061847Z 21010KT 34/13 A3003 RMK A01 T03430131  RH  028%=      5-min Rain = 0
KAI1 061848Z 21010KT 34/13 A3003 RMK A01 T03430131  RH  028%=      5-min Rain = 0
KAI1 061849Z 20011KT 34/13 A3003 RMK A01 T03430129  RH  027%=      5-min Rain = 0
KAI1 061850Z 21010KT 35/13 A3003 RMK A01 T03470129  RH  027%=      5-min Rain = 0
KAI1 061851Z 22010KT 35/13 A3003 RMK A01 T03510130  RH  026%=      5-min Rain = 0
KAI1 061852Z 24008KT 35/13 A3003 RMK A01 T03530127  RH  026%=      5-min Rain = 0
KAI1 061853Z 22007KT 35/13 A3003 RMK A01 T03510126  RH  026%=      5-min Rain = 0
KAI1 061854Z 20009KT 35/13 A3003 RMK A01 T03500128  RH  026%=      5-min Rain = 0
KAI1 061855Z 20013KT 35/13 A3003 RMK A01 T03500128  RH  026%=      5-min Rain = 0
KAI1 061856Z 21011KT 35/12 A3003 RMK A01 T03510122  RH  025%=      5-min Rain = 0
KAI1 061857Z 21012KT 35/13 A3003 RMK A01 T03520125  RH  026%=      5-min Rain = 0
KAI1 061858Z 21013KT 35/13 A3003 RMK A01 T03530126  RH  025%=      5-min Rain = 0
KAI1 061859Z 20013KT 35/13 A3003 RMK A01 T03510125  RH  025%=      5-min Rain = 0
KAI1 061900Z 21011KT 35/12 A3003 RMK A01 T03510123  RH  025%=      5-min Rain = 0
KAI1 061901Z 20011KT 35/12 A3003 RMK A01 T03490122  RH  025%=      5-min Rain = 0
KAI1 061902Z 19012KT 35/12 A3003 RMK A01 T03480123  RH  026%=      5-min Rain = 0
KAI1 061903Z 19011KT 35/12 A3003 RMK A01 T03470120  RH  025%=      5-min Rain = 0
KAI1 061904Z 19011KT 35/12 A3002 RMK A01 T03470123  RH  026%=      5-min Rain = 0
KAI1 061905Z 19011KT 35/12 A3002 RMK A01 T03490121  RH  025%=      5-min Rain = 0
KAI1 061906Z 19011KT 35/12 A3002 RMK A01 T03490123  RH  026%=      5-min Rain = 0
KAI1 061907Z 20012KT 35/12 A3002 RMK A01 T03490123  RH  026%=      5-min Rain = 0
KAI1 061908Z 20011G16KT 35/12 A3002 RMK A01 T03500120  RH  025%=      5-min Rain = 0
KAI1 061909Z 19011KT 35/12 A3002 RMK A01 T03540123  RH  025%=      5-min Rain = 0
KAI1 061910Z 19012KT 36/12 A3002 RMK A01 T03570124  RH  025%=      5-min Rain = 0
KAI1 061911Z 19012KT 36/12 A3002 RMK A01 T03560122  RH  025%=      5-min Rain = 0
KAI1 061912Z 20013KT 35/12 A3002 RMK A01 T03540121  RH  024%=      5-min Rain = 0
KAI1 061913Z 19012KT 35/12 A3002 RMK A01 T03540120  RH  024%=      5-min Rain = 0
KAI1 061914Z 19012KT 36/12 A3002 RMK A01 T03550118  RH  024%=      5-min Rain = 0
KAI1 061915Z 20012KT 36/12 A3002 RMK A01 T03550118  RH  024%=      5-min Rain = 0
KAI1 061916Z 20011KT 35/12 A3002 RMK A01 T03540118  RH  024%=      5-min Rain = 0
KAI1 061917Z 20012KT 36/12 A3002 RMK A01 T03570122  RH  024%=      5-min Rain = 0
KAI1 061918Z 20010KT 36/12 A3002 RMK A01 T03590124  RH  024%=      5-min Rain = 0
KAI1 061919Z 18011KT 36/13 A3002 RMK A01 T03610129  RH  025%=      5-min Rain = 0
KAI1 061920Z 18011KT 36/13 A3002 RMK A01 T03570127  RH  025%=      5-min Rain = 0
KAI1 061921Z 18011KT 35/13 A3002 RMK A01 T03540127  RH  026%=      5-min Rain = 0
KAI1 061922Z 18013KT 35/13 A3002 RMK A01 T03540126  RH  025%=      5-min Rain = 0
KAI1 061923Z 18012KT 35/13 A3002 RMK A01 T03520125  RH  025%=      5-min Rain = 0
KAI1 061924Z 19014KT 35/13 A3002 RMK A01 T03520126  RH  026%=      5-min Rain = 0
KAI1 061925Z 18014KT 36/13 A3002 RMK A01 T03560127  RH  025%=      5-min Rain = 0
KAI1 061926Z 18011KT 36/13 A3002 RMK A01 T03550132  RH  026%=      5-min Rain = 0
KAI1 061927Z 17012G17KT 36/14 A3002 RMK A01 T03570136  RH  027%=      5-min Rain = 0
KAI1 061928Z 18014KT 36/13 A3002 RMK A01 T03570134  RH  026%=      5-min Rain = 0
KAI1 061929Z 18014KT 36/13 A3002 RMK A01 T03610130  RH  025%=      5-min Rain = 0
KAI1 061930Z 17014KT 36/13 A3002 RMK A01 T03620133  RH  025%=      5-min Rain = 0
KAI1 061931Z 18013KT 36/13 A3002 RMK A01 T03580128  RH  025%=      5-min Rain = 0
KAI1 061932Z 17010KT 36/13 A3002 RMK A01 T03570127  RH  025%=      5-min Rain = 0
KAI1 061933Z 18012KT 36/13 A3002 RMK A01 T03590129  RH  025%=      5-min Rain = 0
KAI1 061934Z 18013KT 36/13 A3001 RMK A01 T03570132  RH  026%=      5-min Rain = 0
KAI1 061935Z 18016KT 36/13 A3001 RMK A01 T03560126  RH  025%=      5-min Rain = 0
KAI1 061936Z 18015KT 36/13 A3001 RMK A01 T03570127  RH  025%=      5-min Rain = 0
KAI1 061937Z 20015KT 36/13 A3001 RMK A01 T03580127  RH  025%=      5-min Rain = 0
KAI1 061938Z 18014KT 36/13 A3001 RMK A01 T03590128  RH  025%=      5-min Rain = 0
KAI1 061939Z 18013KT 36/13 A3001 RMK A01 T03600128  RH  025%=      5-min Rain = 0
KAI1 061940Z 17014KT 36/13 A3001 RMK A01 T03610132  RH  025%=      5-min Rain = 0
KAI1 061941Z 18014KT 36/13 A3001 RMK A01 T03600133  RH  026%=      5-min Rain = 0
KAI1 061942Z 18015KT 36/12 A3001 RMK A01 T03580124  RH  024%=      5-min Rain = 0
KAI1 061943Z 18014KT 36/12 A3001 RMK A01 T03550122  RH  025%=      5-min Rain = 0
KAI1 061944Z 17012KT 36/13 A3001 RMK A01 T03550129  RH  026%=      5-min Rain = 0
KAI1 061945Z 17016KT 36/13 A3001 RMK A01 T03560127  RH  025%=      5-min Rain = 0
KAI1 061946Z 18017KT 36/13 A3001 RMK A01 T03550128  RH  026%=      5-min Rain = 0
KAI1 061947Z 18013KT 36/13 A3001 RMK A01 T03570126  RH  025%=      5-min Rain = 0
KAI1 061948Z 17014G19KT 36/13 A3001 RMK A01 T03620130  RH  025%=      5-min Rain = 0
KAI1 061949Z 18012KT 36/14 A3001 RMK A01 T03610136  RH  026%=      5-min Rain = 0
KAI1 061950Z 18014G19KT 36/13 A3001 RMK A01 T03620134  RH  026%=      5-min Rain = 0
KAI1 061951Z 18016KT 36/13 A3001 RMK A01 T03610128  RH  025%=      5-min Rain = 0
KAI1 061952Z 18015KT 36/13 A3001 RMK A01 T03590130  RH  025%=      5-min Rain = 0
KAI1 061953Z 17015KT 36/13 A3001 RMK A01 T03610133  RH  026%=      5-min Rain = 0
KAI1 061954Z 18013KT 36/13 A3001 RMK A01 T03610134  RH  026%=      5-min Rain = 0
KAI1 061955Z 19012KT 36/13 A3001 RMK A01 T03600127  RH  025%=      5-min Rain = 0
KAI1 061956Z 17009G14KT 36/13 A3001 RMK A01 T03610133  RH  026%=      5-min Rain = 0
KAI1 061957Z 16010KT 36/14 A3001 RMK A01 T03630138  RH  026%=      5-min Rain = 0
KAI1 061958Z 16013KT 36/14 A3001 RMK A01 T03630140  RH  026%=      5-min Rain = 0
KAI1 061959Z 16011KT 36/14 A3001 RMK A01 T03620135  RH  026%=      5-min Rain = 0
KAI1 062000Z 16014KT 36/13 A3001 RMK A01 T03600132  RH  026%=      5-min Rain = 0
KAI1 062001Z 18015KT 36/14 A3001 RMK A01 T03590136  RH  026%=      5-min Rain = 0
KAI1 062002Z 18015KT 36/13 A3001 RMK A01 T03580131  RH  026%=      5-min Rain = 0
KAI1 062003Z 18014KT 35/13 A3001 RMK A01 T03540132  RH  026%=      5-min Rain = 0
KAI1 062004Z 17013KT 35/13 A3001 RMK A01 T03530130  RH  026%=      5-min Rain = 0
KAI1 062005Z 17014KT 35/14 A3001 RMK A01 T03530136  RH  027%=      5-min Rain = 0
KAI1 062006Z 18014KT 35/13 A3001 RMK A01 T03530131  RH  026%=      5-min Rain = 0
KAI1 062007Z 19013KT 36/13 A3001 RMK A01 T03550130  RH  026%=      5-min Rain = 0
KAI1 062008Z 19013KT 36/13 A3001 RMK A01 T03550129  RH  026%=      5-min Rain = 0
KAI1 062009Z 18010KT 36/13 A3001 RMK A01 T03560131  RH  026%=      5-min Rain = 0
KAI1 062010Z 17011KT 36/14 A3001 RMK A01 T03580135  RH  026%=      5-min Rain = 0
KAI1 062011Z 17011KT 36/14 A3001 RMK A01 T03580137  RH  027%=      5-min Rain = 0
KAI1 062012Z 18011KT 36/14 A3001 RMK A01 T03590135  RH  026%=      5-min Rain = 0
KAI1 062013Z 19017KT 36/13 A30 RMK A01 T03590134  RH  026%=      5-min Rain = 0
KAI1 062014Z 18016KT 36/13 A3001 RMK A01 T03610132  RH  025%=      5-min Rain = 0
KAI1 062015Z 18013KT 36/13 A3001 RMK A01 T03610131  RH  025%=      5-min Rain = 0
KAI1 062016Z 19011KT 36/13 A30 RMK A01 T03600132  RH  025%=      5-min Rain = 0
KAI1 062017Z 19011KT 36/13 A30 RMK A01 T03600131  RH  025%=      5-min Rain = 0
KAI1 062018Z 19014KT 36/13 A30 RMK A01 T03600131  RH  025%=      5-min Rain = 0
KAI1 062019Z 18015KT 36/13 A30 RMK A01 T03620133  RH  025%=      5-min Rain = 0
KAI1 062020Z 19016KT 36/13 A30 RMK A01 T03640132  RH  025%=      5-min Rain = 0
KAI1 062021Z 18012KT 37/13 A30 RMK A01 T03670132  RH  025%=      5-min Rain = 0
KAI1 062022Z 16012KT 37/14 A30 RMK A01 T03670140  RH  026%=      5-min Rain = 0
KAI1 062023Z 17012KT 37/14 A30 RMK A01 T03660140  RH  026%=      5-min Rain = 0
KAI1 062024Z 18012G17KT 36/14 A30 RMK A01 T03630141  RH  026%=      5-min Rain = 0
KAI1 062025Z 17012KT 37/14 A30 RMK A01 T03680141  RH  026%=      5-min Rain = 0
KAI1 062026Z 18015KT 37/14 A30 RMK A01 T03700141  RH  026%=      5-min Rain = 0
KAI1 062027Z 18014KT 37/14 A30 RMK A01 T03690136  RH  025%=      5-min Rain = 0
KAI1 062028Z 18013KT 37/14 A30 RMK A01 T03680136  RH  025%=      5-min Rain = 0
KAI1 062029Z 18014KT 37/14 A30 RMK A01 T03690137  RH  025%=      5-min Rain = 0
KAI1 062030Z 18015KT 37/13 A30 RMK A01 T03650134  RH  025%=      5-min Rain = 0
KAI1 062031Z 17011KT 36/14 A30 RMK A01 T03640137  RH  026%=      5-min Rain = 0
KAI1 062032Z 16011KT 36/14 A30 RMK A01 T03640140  RH  026%=      5-min Rain = 0
KAI1 062033Z 18013KT 36/14 A30 RMK A01 T03630138  RH  026%=      5-min Rain = 0
KAI1 062034Z 18015KT 36/13 A30 RMK A01 T03630134  RH  025%=      5-min Rain = 0
KAI1 062035Z 19015KT 37/13 A30 RMK A01 T03660134  RH  025%=      5-min Rain = 0
KAI1 062036Z 19016KT 37/13 A30 RMK A01 T03690133  RH  025%=      5-min Rain = 0
KAI1 062037Z 18011KT 37/13 A30 RMK A01 T03700127  RH  023%=      5-min Rain = 0
KAI1 062038Z 20011G16KT 37/13 A30 RMK A01 T03700128  RH  023%=      5-min Rain = 0
KAI1 062039Z 19012KT 37/12 A2999 RMK A01 T03660124  RH  023%=      5-min Rain = 0
KAI1 062040Z 19014KT 37/13 A2999 RMK A01 T03670133  RH  025%=      5-min Rain = 0
KAI1 062041Z 19016KT 37/13 A2999 RMK A01 T03730128  RH  023%=      5-min Rain = 0
KAI1 062042Z 18017KT 37/13 A2999 RMK A01 T03720126  RH  023%=      5-min Rain = 0
KAI1 062043Z 18014G20KT 37/13 A2999 RMK A01 T03690128  RH  024%=      5-min Rain = 0
KAI1 062044Z 18017G22KT 37/13 A2999 RMK A01 T03670125  RH  023%=      5-min Rain = 0
KAI1 062045Z 18014KT 37/12 A2999 RMK A01 T03660122  RH  023%=      5-min Rain = 0
KAI1 062046Z 17011KT 37/13 A2999 RMK A01 T03660126  RH  024%=      5-min Rain = 0
KAI1 062047Z 17011KT 37/13 A2999 RMK A01 T03650127  RH  024%=      5-min Rain = 0
KAI1 062048Z 18010KT 37/13 A2999 RMK A01 T03650126  RH  024%=      5-min Rain = 0
KAI1 062049Z 18009KT 37/13 A2999 RMK A01 T03660130  RH  024%=      5-min Rain = 0
KAI1 062050Z 19011KT 37/14 A2999 RMK A01 T03680135  RH  025%=      5-min Rain = 0
KAI1 062051Z 21013KT 37/13 A2999 RMK A01 T03740128  RH  023%=      5-min Rain = 0
KAI1 062052Z 19015KT 38/12 A2999 RMK A01 T03760124  RH  022%=      5-min Rain = 0
KAI1 062053Z 20012KT 38/12 A2999 RMK A01 T03760124  RH  022%=      5-min Rain = 0
KAI1 062054Z 18010KT 38/13 A2999 RMK A01 T03750130  RH  023%=      5-min Rain = 0
KAI1 062055Z 19011G17KT 37/13 A2999 RMK A01 T03740128  RH  023%=      5-min Rain = 0
KAI1 062056Z 19016KT 37/13 A2999 RMK A01 T03730126  RH  023%=      5-min Rain = 0
KAI1 062057Z 18017KT 37/12 A2999 RMK A01 T03730124  RH  023%=      5-min Rain = 0
KAI1 062058Z 18016KT 37/12 A2999 RMK A01 T03700124  RH  023%=      5-min Rain = 0
KAI1 062059Z 18016KT 37/12 A2999 RMK A01 T03690124  RH  023%=      5-min Rain = 0
KAI1 062100Z 19014KT 37/12 A2999 RMK A01 T03670120  RH  023%=      5-min Rain = 0
KAI1 062101Z 17017KT 37/12 A2999 RMK A01 T03690123  RH  023%=      5-min Rain = 0
KAI1 062102Z 18018KT 37/12 A2999 RMK A01 T03680123  RH  023%=      5-min Rain = 0
KAI1 062103Z 18015KT 37/12 A2999 RMK A01 T03680120  RH  023%=      5-min Rain = 0
KAI1 062104Z 17014KT 37/12 A2999 RMK A01 T03710124  RH  023%=      5-min Rain = 0
KAI1 062105Z 17012KT 37/12 A2999 RMK A01 T03700122  RH  023%=      5-min Rain = 0
KAI1 062106Z 17012KT 37/12 A2999 RMK A01 T03680122  RH  023%=      5-min Rain = 0
KAI1 062107Z 17012KT 37/13 A2998 RMK A01 T03680127  RH  024%=      5-min Rain = 0
KAI1 062108Z 18012KT 37/13 A2998 RMK A01 T03690125  RH  023%=      5-min Rain = 0
KAI1 062109Z 18017KT 37/12 A2998 RMK A01 T03690124  RH  023%=      5-min Rain = 0
KAI1 062110Z 18013KT 37/12 A2998 RMK A01 T03700123  RH  023%=      5-min Rain = 0
KAI1 062111Z 18014G19KT 37/13 A2998 RMK A01 T03720127  RH  023%=      5-min Rain = 0
KAI1 062112Z 18013KT 37/13 A2998 RMK A01 T03740125  RH  023%=      5-min Rain = 0
KAI1 062113Z 19014KT 37/12 A2998 RMK A01 T03730117  RH  022%=      5-min Rain = 0
KAI1 062114Z 18010KT 37/12 A2998 RMK A01 T03720124  RH  023%=      5-min Rain = 0
KAI1 062115Z 17012KT 37/13 A2998 RMK A01 T03740127  RH  023%=      5-min Rain = 0
KAI1 062116Z 17014KT 37/12 A2998 RMK A01 T03710121  RH  022%=      5-min Rain = 0
KAI1 062117Z 18016G21KT 37/13 A2998 RMK A01 T03690126  RH  023%=      5-min Rain = 0
KAI1 062118Z 18016KT 37/12 A2998 RMK A01 T03680124  RH  023%=      5-min Rain = 0
KAI1 062119Z 18014KT 37/12 A2998 RMK A01 T03720122  RH  022%=      5-min Rain = 0
KAI1 062120Z 18015KT 37/13 A2998 RMK A01 T03730126  RH  023%=      5-min Rain = 0
KAI1 062121Z 19016KT 37/12 A2998 RMK A01 T03730122  RH  022%=      5-min Rain = 0
KAI1 062122Z 18013KT 37/12 A2998 RMK A01 T03740123  RH  022%=      5-min Rain = 0
KAI1 062123Z 18014KT 37/12 A2998 RMK A01 T03740119  RH  022%=      5-min Rain = 0
KAI1 062124Z 19014KT 37/12 A2998 RMK A01 T03730120  RH  022%=      5-min Rain = 0
KAI1 062125Z 20011KT 37/12 A2998 RMK A01 T03730119  RH  022%=      5-min Rain = 0
KAI1 062126Z 18014KT 38/12 A2998 RMK A01 T03750121  RH  022%=      5-min Rain = 0
KAI1 062127Z 19016KT 38/12 A2998 RMK A01 T03750119  RH  022%=      5-min Rain = 0
KAI1 062128Z 17016KT 37/12 A2997 RMK A01 T03730118  RH  022%=      5-min Rain = 0
KAI1 062129Z 18014KT 37/12 A2998 RMK A01 T03710122  RH  022%=      5-min Rain = 0
KAI1 062130Z 17012KT 37/12 A2997 RMK A01 T03710122  RH  023%=      5-min Rain = 0
KAI1 062131Z 18018KT 37/12 A2997 RMK A01 T03720122  RH  022%=      5-min Rain = 0
KAI1 062132Z 18019KT 37/12 A2997 RMK A01 T03720120  RH  022%=      5-min Rain = 0
KAI1 062133Z 19017KT 37/12 A2997 RMK A01 T03710117  RH  022%=      5-min Rain = 0
KAI1 062134Z 18018KT 37/12 A2997 RMK A01 T03740115  RH  021%=      5-min Rain = 0
KAI1 062135Z 19013KT 37/11 A2997 RMK A01 T03720114  RH  021%=      5-min Rain = 0
KAI1 062136Z 17011KT 38/12 A2997 RMK A01 T03750123  RH  022%=      5-min Rain = 0
KAI1 062137Z 16015KT 37/13 A2997 RMK A01 T03740125  RH  023%=      5-min Rain = 0
KAI1 062138Z 17012KT 37/12 A2997 RMK A01 T03710121  RH  022%=      5-min Rain = 0
KAI1 062139Z 17013G18KT 37/12 A2997 RMK A01 T03690123  RH  023%=      5-min Rain = 0
KAI1 062140Z 17017KT 37/12 A2997 RMK A01 T03670120  RH  023%=      5-min Rain = 0
KAI1 062141Z 18012KT 37/12 A2997 RMK A01 T03680121  RH  023%=      5-min Rain = 0
KAI1 062142Z 18014KT 37/12 A2997 RMK A01 T03690123  RH  023%=      5-min Rain = 0
KAI1 062143Z 19019KT 37/12 A2997 RMK A01 T03720118  RH  022%=      5-min Rain = 0
KAI1 062144Z 18018G23KT 38/11 A2997 RMK A01 T03750113  RH  021%=      5-min Rain = 0
KAI1 062145Z 19015KT 37/11 A2997 RMK A01 T03730113  RH  021%=      5-min Rain = 0
KAI1 062146Z 18013KT 37/11 A2997 RMK A01 T03720113  RH  021%=      5-min Rain = 0
KAI1 062147Z 19014G19KT 37/12 A2997 RMK A01 T03700115  RH  022%=      5-min Rain = 0
KAI1 062148Z 19014KT 37/11 A2997 RMK A01 T03700110  RH  021%=      5-min Rain = 0
KAI1 062149Z 17014KT 37/12 A2997 RMK A01 T03720115  RH  021%=      5-min Rain = 0
KAI1 062150Z 17016KT 37/12 A2996 RMK A01 T03710117  RH  022%=      5-min Rain = 0
KAI1 062151Z 18017KT 37/12 A2996 RMK A01 T03700117  RH  022%=      5-min Rain = 0
KAI1 062152Z 18015KT 37/12 A2996 RMK A01 T03690116  RH  022%=      5-min Rain = 0
KAI1 062153Z 18013G19KT 37/12 A2996 RMK A01 T03710117  RH  022%=      5-min Rain = 0
KAI1 062154Z 17011KT 37/12 A2996 RMK A01 T03720117  RH  022%=      5-min Rain = 0
KAI1 062155Z 17014KT 37/12 A2996 RMK A01 T03720121  RH  022%=      5-min Rain = 0
KAI1 062156Z 17019KT 37/12 A2996 RMK A01 T03700121  RH  022%=      5-min Rain = 0
KAI1 062157Z 17017KT 37/12 A2996 RMK A01 T03690117  RH  022%=      5-min Rain = 0
KAI1 062158Z 18016KT 37/11 A2996 RMK A01 T03680114  RH  022%=      5-min Rain = 0
KAI1 062159Z 18016KT 37/11 A2996 RMK A01 T03690112  RH  021%=      5-min Rain = 0
KAI1 062200Z 18010KT 37/12 A2996 RMK A01 T03690116  RH  022%=      5-min Rain = 0
KAI1 062201Z 18014G20KT 37/12 A2996 RMK A01 T03720117  RH  022%=      5-min Rain = 0
KAI1 062202Z 17018G23KT 37/12 A2996 RMK A01 T03720120  RH  022%=      5-min Rain = 0
KAI1 062203Z 18014KT 37/12 A2996 RMK A01 T03730120  RH  022%=      5-min Rain = 0
KAI1 062204Z 18016KT 38/12 A2996 RMK A01 T03760115  RH  021%=      5-min Rain = 0
KAI1 062205Z 18014KT 38/11 A2996 RMK A01 T03750111  RH  021%=      5-min Rain = 0
KAI1 062206Z 19012KT 38/11 A2996 RMK A01 T03750112  RH  021%=      5-min Rain = 0
KAI1 062207Z 18013KT 37/11 A2996 RMK A01 T03740111  RH  021%=      5-min Rain = 0
KAI1 062208Z 18010KT 37/12 A2996 RMK A01 T03710117  RH  022%=      5-min Rain = 0
KAI1 062209Z 18014KT 37/12 A2996 RMK A01 T03720122  RH  022%=      5-min Rain = 0
KAI1 062210Z 19016G21KT 37/11 A2996 RMK A01 T03730114  RH  021%=      5-min Rain = 0
KAI1 062211Z 20012KT 37/11 A2996 RMK A01 T03730112  RH  021%=      5-min Rain = 0
KAI1 062212Z 19016KT 38/11 A2996 RMK A01 T03750109  RH  020%=      5-min Rain = 0
KAI1 062213Z 19019KT 37/11 A2995 RMK A01 T03730110  RH  021%=      5-min Rain = 0
KAI1 062214Z 18018KT 37/11 A2995 RMK A01 T03710110  RH  021%=      5-min Rain = 0
KAI1 062215Z 17015KT 37/12 A2996 RMK A01 T03720116  RH  022%=      5-min Rain = 0
KAI1 062216Z 18016KT 37/11 A2996 RMK A01 T03700111  RH  021%=      5-min Rain = 0
KAI1 062217Z 20014KT 37/11 A2995 RMK A01 T03680109  RH  021%=      5-min Rain = 0
KAI1 062218Z 18014KT 37/11 A2996 RMK A01 T03710113  RH  021%=      5-min Rain = 0
KAI1 062219Z 18021KT 37/12 A2995 RMK A01 T03710116  RH  022%=      5-min Rain = 0
KAI1 062220Z 18017KT 37/11 A2995 RMK A01 T03680113  RH  022%=      5-min Rain = 0
KAI1 062221Z 18016KT 37/11 A2995 RMK A01 T03670114  RH  022%=      5-min Rain = 0
KAI1 062222Z 18017G23KT 37/12 A2995 RMK A01 T03680115  RH  022%=      5-min Rain = 0
KAI1 062223Z 18019KT 37/12 A2995 RMK A01 T03680118  RH  022%=      5-min Rain = 0
KAI1 062224Z 17018KT 37/12 A2995 RMK A01 T03690115  RH  022%=      5-min Rain = 0
KAI1 062225Z 18016G21KT 37/12 A2995 RMK A01 T03690118  RH  022%=      5-min Rain = 0
KAI1 062226Z 18021KT 37/12 A2995 RMK A01 T03680116  RH  022%=      5-min Rain = 0
KAI1 062227Z 18018KT 37/11 A2995 RMK A01 T03690112  RH  021%=      5-min Rain = 0
KAI1 062228Z 18016KT 37/12 A2996 RMK A01 T03690115  RH  022%=      5-min Rain = 0
KAI1 062229Z 19015KT 37/11 A2996 RMK A01 T03690114  RH  022%=      5-min Rain = 0
KAI1 062230Z 17012KT 37/11 A2995 RMK A01 T03690114  RH  022%=      5-min Rain = 0
KAI1 062231Z 18014KT 37/12 A2995 RMK A01 T03700116  RH  022%=      5-min Rain = 0
KAI1 062232Z 17016KT 37/12 A2995 RMK A01 T03700117  RH  022%=      5-min Rain = 0
KAI1 062233Z 17017KT 37/12 A2995 RMK A01 T03700119  RH  022%=      5-min Rain = 0
KAI1 062234Z 17018KT 37/11 A2995 RMK A01 T03670114  RH  022%=      5-min Rain = 0
KAI1 062235Z 18017KT 37/11 A2995 RMK A01 T03660114  RH  022%=      5-min Rain = 0
KAI1 062236Z 17013KT 37/11 A2996 RMK A01 T03660114  RH  022%=      5-min Rain = 0
KAI1 062237Z 19013G18KT 37/11 A2996 RMK A01 T03650114  RH  022%=      5-min Rain = 0
KAI1 062238Z 19018KT 37/11 A2996 RMK A01 T03660114  RH  022%=      5-min Rain = 0
KAI1 062239Z 19018KT 37/11 A2996 RMK A01 T03700114  RH  022%=      5-min Rain = 0
KAI1 062240Z 20016KT 37/11 A2996 RMK A01 T03700112  RH  021%=      5-min Rain = 0
KAI1 062241Z 19014KT 37/11 A2996 RMK A01 T03690111  RH  021%=      5-min Rain = 0
KAI1 062242Z 19014KT 37/11 A2996 RMK A01 T03710113  RH  021%=      5-min Rain = 0
KAI1 062243Z 19013KT 37/11 A2996 RMK A01 T03730113  RH  021%=      5-min Rain = 0
KAI1 062244Z 20017G22KT 37/11 A2996 RMK A01 T03720112  RH  021%=      5-min Rain = 0
KAI1 062245Z 18016KT 37/11 A2996 RMK A01 T03690109  RH  021%=      5-min Rain = 0
KAI1 062246Z 19018KT 37/11 A2996 RMK A01 T03670110  RH  021%=      5-min Rain = 0
KAI1 062247Z 19016KT 37/11 A2996 RMK A01 T03650108  RH  021%=      5-min Rain = 0
KAI1 062248Z 19017KT 36/11 A2996 RMK A01 T03640110  RH  022%=      5-min Rain = 0
KAI1 062249Z 19016KT 36/11 A2996 RMK A01 T03640108  RH  021%=      5-min Rain = 0
KAI1 062250Z 19016KT 36/11 A2996 RMK A01 T03640109  RH  021%=      5-min Rain = 0
KAI1 062251Z 19016KT 36/11 A2996 RMK A01 T03630108  RH  021%=      5-min Rain = 0
KAI1 062252Z 19013KT 36/11 A2996 RMK A01 T03620109  RH  022%=      5-min Rain = 0
KAI1 062253Z 18013KT 36/11 A2996 RMK A01 T03620114  RH  022%=      5-min Rain = 0
KAI1 062254Z 18010KT 36/12 A2996 RMK A01 T03610116  RH  023%=      5-min Rain = 0
KAI1 062255Z 18010KT 36/12 A2996 RMK A01 T03590117  RH  023%=      5-min Rain = 0
KAI1 062256Z 18012KT 36/12 A2996 RMK A01 T03590116  RH  023%=      5-min Rain = 0
KAI1 062257Z 19012KT 36/12 A2996 RMK A01 T03590116  RH  023%=      5-min Rain = 0
KAI1 062258Z 19011G16KT 36/12 A2996 RMK A01 T03590117  RH  023%=      5-min Rain = 0
KAI1 062259Z 19014KT 36/11 A2996 RMK A01 T03590112  RH  022%=      5-min Rain = 0
KAI1 062300Z 19014KT 36/11 A2996 RMK A01 T03590110  RH  022%=      5-min Rain = 0
KAI1 062301Z 19012KT 36/11 A2996 RMK A01 T03580108  RH  022%=      5-min Rain = 0
KAI1 062302Z 19014KT 36/11 A2996 RMK A01 T03580110  RH  022%=      5-min Rain = 0
KAI1 062303Z 20013KT 36/11 A2996 RMK A01 T03580113  RH  023%=      5-min Rain = 0
KAI1 062304Z 20011KT 36/11 A2996 RMK A01 T03590111  RH  022%=      5-min Rain = 0
KAI1 062305Z 19012KT 36/11 A2996 RMK A01 T03590111  RH  022%=      5-min Rain = 0
KAI1 062306Z 18014KT 36/12 A2995 RMK A01 T03610115  RH  023%=      5-min Rain = 0
KAI1 062307Z 18013KT 36/12 A2995 RMK A01 T03600117  RH  023%=      5-min Rain = 0
KAI1 062308Z 18014KT 36/12 A2995 RMK A01 T03600121  RH  024%=      5-min Rain = 0
KAI1 062309Z 19017KT 36/12 A2995 RMK A01 T03600117  RH  023%=      5-min Rain = 0
KAI1 062310Z 19013KT 36/12 A2995 RMK A01 T03600116  RH  023%=      5-min Rain = 0
KAI1 062311Z 18015KT 36/12 A2995 RMK A01 T03630116  RH  023%=      5-min Rain = 0
KAI1 062312Z 18015KT 36/12 A2995 RMK A01 T03630117  RH  023%=      5-min Rain = 0
KAI1 062313Z 18012KT 36/12 A2995 RMK A01 T03620120  RH  023%=      5-min Rain = 0
KAI1 062314Z 17016KT 36/13 A2995 RMK A01 T03610125  RH  024%=      5-min Rain = 0
KAI1 062315Z 17017KT 36/12 A2995 RMK A01 T03590124  RH  024%=      5-min Rain = 0
KAI1 062316Z 17014KT 36/12 A2995 RMK A01 T03580119  RH  024%=      5-min Rain = 0
KAI1 062317Z 17013G18KT 36/12 A2995 RMK A01 T03580123  RH  024%=      5-min Rain = 0
KAI1 062318Z 17014KT 36/12 A2995 RMK A01 T03570123  RH  024%=      5-min Rain = 0
KAI1 062319Z 17014G19KT 36/12 A2995 RMK A01 T03580123  RH  024%=      5-min Rain = 0
KAI1 062320Z 17015KT 36/12 A2995 RMK A01 T03570124  RH  025%=      5-min Rain = 0
KAI1 062321Z 17016KT 36/12 A2995 RMK A01 T03570124  RH  025%=      5-min Rain = 0
KAI1 062322Z 17016KT 36/12 A2995 RMK A01 T03570124  RH  025%=      5-min Rain = 0
KAI1 062323Z 17014KT 36/13 A2995 RMK A01 T03580126  RH  025%=      5-min Rain = 0
KAI1 062324Z 18016KT 36/13 A2995 RMK A01 T03590126  RH  025%=      5-min Rain = 0
KAI1 062325Z 17019KT 36/12 A2995 RMK A01 T03580121  RH  024%=      5-min Rain = 0
KAI1 062326Z 17018KT 36/12 A2995 RMK A01 T03570121  RH  024%=      5-min Rain = 0
KAI1 062327Z 18017KT 36/12 A2995 RMK A01 T03570121  RH  024%=      5-min Rain = 0
KAI1 062328Z 18014KT 36/12 A2995 RMK A01 T03590118  RH  023%=      5-min Rain = 0
KAI1 062329Z 18015KT 36/12 A2995 RMK A01 T03600122  RH  024%=      5-min Rain = 0
KAI1 062330Z 18017KT 36/12 A2995 RMK A01 T03620120  RH  023%=      5-min Rain = 0
KAI1 062331Z 18016KT 36/12 A2995 RMK A01 T03630119  RH  023%=      5-min Rain = 0
KAI1 062332Z 17015KT 36/12 A2995 RMK A01 T03620120  RH  023%=      5-min Rain = 0
KAI1 062333Z 18014KT 36/12 A2995 RMK A01 T03600121  RH  024%=      5-min Rain = 0
KAI1 062334Z 18014KT 36/12 A2995 RMK A01 T03600118  RH  023%=      5-min Rain = 0
KAI1 062335Z 17014G19KT 36/12 A2995 RMK A01 T03600122  RH  024%=      5-min Rain = 0
KAI1 062336Z 18015KT 36/12 A2995 RMK A01 T03580119  RH  024%=      5-min Rain = 0
KAI1 062337Z 18014KT 36/12 A2995 RMK A01 T03570119  RH  024%=      5-min Rain = 0
KAI1 062338Z 19016KT 36/12 A2995 RMK A01 T03560116  RH  023%=      5-min Rain = 0
KAI1 062339Z 18014KT 36/12 A2995 RMK A01 T03560117  RH  024%=      5-min Rain = 0
KAI1 062340Z 18012KT 36/12 A2995 RMK A01 T03560120  RH  024%=      5-min Rain = 0
KAI1 062341Z 17012KT 35/12 A2995 RMK A01 T03540122  RH  025%=      5-min Rain = 0
KAI1 062342Z 18013KT 35/12 A2995 RMK A01 T03520122  RH  025%=      5-min Rain = 0
KAI1 062343Z 18014KT 35/12 A2995 RMK A01 T03510120  RH  025%=      5-min Rain = 0
KAI1 062344Z 19014KT 35/12 A2995 RMK A01 T03520118  RH  024%=      5-min Rain = 0
KAI1 062345Z 18013KT 35/12 A2995 RMK A01 T03530117  RH  024%=      5-min Rain = 0
KAI1 062346Z 18014KT 35/12 A2995 RMK A01 T03530116  RH  024%=      5-min Rain = 0
KAI1 062347Z 17011KT 35/12 A2995 RMK A01 T03530121  RH  025%=      5-min Rain = 0
KAI1 062348Z 17013KT 35/13 A2995 RMK A01 T03520125  RH  025%=      5-min Rain = 0
KAI1 062349Z 17017KT 35/12 A2995 RMK A01 T03500123  RH  025%=      5-min Rain = 0
KAI1 062350Z 17015KT 35/12 A2995 RMK A01 T03500121  RH  025%=      5-min Rain = 0
KAI1 062351Z 17012KT 35/12 A2995 RMK A01 T03490123  RH  026%=      5-min Rain = 0
KAI1 062352Z 17013KT 35/12 A2995 RMK A01 T03490123  RH  026%=      5-min Rain = 0
KAI1 062353Z 17012KT 35/12 A2995 RMK A01 T03490124  RH  026%=      5-min Rain = 0
KAI1 062354Z 17016KT 35/12 A2995 RMK A01 T03490124  RH  026%=      5-min Rain = 0
KAI1 062355Z 17013G19KT 35/13 A2995 RMK A01 T03490125  RH  026%=      5-min Rain = 0
KAI1 062356Z 17018KT 35/13 A2995 RMK A01 T03500125  RH  026%=      5-min Rain = 0
KAI1 062357Z 17017KT 35/12 A2995 RMK A01 T03500123  RH  025%=      5-min Rain = 0
KAI1 062358Z 16015G21KT 35/13 A2995 RMK A01 T03510125  RH  026%=      5-min Rain = 0
KAI1 062359Z 17016KT 35/13 A2995 RMK A01 T03510126  RH  026%=      5-min Rain = 0
KAI1 070000Z 17016KT 35/13 A2995 RMK A01 T03500125  RH  026%=      5-min Rain = 0
KAI1 070001Z 17016KT 35/13 A2995 RMK A01 T03500125  RH  026%=      5-min Rain = 0
KAI1 070002Z 17016KT 35/12 A2995 RMK A01 T03510124  RH  026%=      5-min Rain = 0
KAI1 070003Z 17014KT 35/13 A2995 RMK A01 T03500127  RH  026%=      5-min Rain = 0
KAI1 070004Z 17014KT 35/13 A2995 RMK A01 T03480126  RH  026%=      5-min Rain = 0
KAI1 070005Z 17012KT 35/13 A2995 RMK A01 T03470127  RH  027%=      5-min Rain = 0
KAI1 070006Z 16015KT 35/13 A2995 RMK A01 T03460127  RH  027%=      5-min Rain = 0
KAI1 070007Z 16012KT 35/13 A2995 RMK A01 T03450126  RH  027%=      5-min Rain = 0
KAI1 070008Z 16013KT 35/13 A2995 RMK A01 T03450128  RH  027%=      5-min Rain = 0
KAI1 070009Z 17012KT 35/13 A2995 RMK A01 T03450130  RH  027%=      5-min Rain = 0
KAI1 070010Z 17012KT 34/13 A2995 RMK A01 T03440129  RH  027%=      5-min Rain = 0
KAI1 070011Z 17012KT 34/13 A2995 RMK A01 T03430130  RH  028%=      5-min Rain = 0
KAI1 070012Z 17014KT 34/13 A2995 RMK A01 T03430130  RH  028%=      5-min Rain = 0
KAI1 070013Z 17014KT 34/13 A2995 RMK A01 T03420127  RH  027%=      5-min Rain = 0
KAI1 070014Z 17012KT 34/13 A2995 RMK A01 T03420128  RH  027%=      5-min Rain = 0
KAI1 070015Z 17013KT 34/13 A2995 RMK A01 T03420129  RH  028%=      5-min Rain = 0
KAI1 070016Z 17011KT 34/13 A2995 RMK A01 T03410129  RH  028%=      5-min Rain = 0
KAI1 070017Z 17010KT 34/13 A2995 RMK A01 T03410129  RH  028%=      5-min Rain = 0
KAI1 070018Z 17011KT 34/13 A2995 RMK A01 T03420129  RH  028%=      5-min Rain = 0
KAI1 070019Z 17011KT 34/13 A2995 RMK A01 T03420129  RH  028%=      5-min Rain = 0
KAI1 070020Z 16010KT 34/13 A2995 RMK A01 T03420131  RH  028%=      5-min Rain = 0
KAI1 070021Z 16009KT 34/13 A2995 RMK A01 T03400133  RH  029%=      5-min Rain = 0
KAI1 070022Z 16010KT 34/13 A2995 RMK A01 T03390133  RH  029%=      5-min Rain = 0
KAI1 070023Z 16011KT 34/13 A2995 RMK A01 T03390132  RH  029%=      5-min Rain = 0
KAI1 070024Z 16012G17KT 34/13 A2995 RMK A01 T03390132  RH  029%=      5-min Rain = 0
KAI1 070025Z 16013G18KT 34/13 A2995 RMK A01 T03400131  RH  028%=      5-min Rain = 0
KAI1 070026Z 16012KT 34/13 A2995 RMK A01 T03410130  RH  028%=      5-min Rain = 0
KAI1 070027Z 16011KT 34/13 A2995 RMK A01 T03420131  RH  028%=      5-min Rain = 0
KAI1 070028Z 16012KT 34/13 A2995 RMK A01 T03430132  RH  028%=      5-min Rain = 0
KAI1 070029Z 16011KT 34/13 A2995 RMK A01 T03440132  RH  028%=      5-min Rain = 0
KAI1 070030Z 16011KT 35/13 A2995 RMK A01 T03450132  RH  028%=      5-min Rain = 0
KAI1 070031Z 16008KT 35/14 A2995 RMK A01 T03460135  RH  028%=      5-min Rain = 0
KAI1 070032Z 16012KT 35/14 A2995 RMK A01 T03460135  RH  028%=      5-min Rain = 0
KAI1 070033Z 16010KT 35/13 A2995 RMK A01 T03460133  RH  028%=      5-min Rain = 0
KAI1 070034Z 16010KT 35/13 A2995 RMK A01 T03460134  RH  028%=      5-min Rain = 0
KAI1 070035Z 16011KT 35/13 A2995 RMK A01 T03450134  RH  028%=      5-min Rain = 0
KAI1 070036Z 16010KT 35/13 A2995 RMK A01 T03450134  RH  028%=      5-min Rain = 0
KAI1 070037Z 16012KT 34/13 A2995 RMK A01 T03440134  RH  028%=      5-min Rain = 0
KAI1 070038Z 16012KT 34/13 A2995 RMK A01 T03430134  RH  028%=      5-min Rain = 0
KAI1 070039Z 17014G20KT 34/13 A2995 RMK A01 T03420134  RH  028%=      5-min Rain = 0
KAI1 070040Z 16016KT 34/14 A2995 RMK A01 T03410135  RH  029%=      5-min Rain = 0
KAI1 070041Z 15015G20KT 34/14 A2995 RMK A01 T03400138  RH  030%=      5-min Rain = 0
KAI1 070042Z 16013KT 34/14 A2995 RMK A01 T03390139  RH  030%=      5-min Rain = 0
KAI1 070043Z 16014KT 34/14 A2995 RMK A01 T03380141  RH  030%=      5-min Rain = 0
KAI1 070044Z 16014KT 34/14 A2995 RMK A01 T03370141  RH  031%=      5-min Rain = 0
KAI1 070045Z 16013KT 34/14 A2995 RMK A01 T03370141  RH  031%=      5-min Rain = 0
KAI1 070046Z 15015KT 34/14 A2995 RMK A01 T03360142  RH  031%=      5-min Rain = 0
KAI1 070047Z 16014G19KT 34/14 A2995 RMK A01 T03360142  RH  031%=      5-min Rain = 0
KAI1 070048Z 16013G19KT 34/14 A2995 RMK A01 T03350142  RH  031%=      5-min Rain = 0
KAI1 070049Z 15015KT 33/14 A2995 RMK A01 T03340142  RH  031%=      5-min Rain = 0
KAI1 070050Z 16013KT 33/14 A2995 RMK A01 T03340143  RH  032%=      5-min Rain = 0
KAI1 070051Z 15014KT 33/14 A2995 RMK A01 T03330144  RH  032%=      5-min Rain = 0
KAI1 070052Z 15011KT 33/14 A2995 RMK A01 T03330144  RH  032%=      5-min Rain = 0
KAI1 070053Z 15009KT 33/15 A2996 RMK A01 T03320146  RH  033%=      5-min Rain = 0
KAI1 070054Z 15012KT 33/15 A2996 RMK A01 T03310146  RH  033%=      5-min Rain = 0
KAI1 070055Z 15011KT 33/15 A2996 RMK A01 T03300146  RH  033%=      5-min Rain = 0
KAI1 070056Z 15012KT 33/15 A2996 RMK A01 T03300146  RH  033%=      5-min Rain = 0
KAI1 070057Z 15010KT 33/15 A2996 RMK A01 T03290146  RH  033%=      5-min Rain = 0
KAI1 070058Z 15010KT 33/15 A2996 RMK A01 T03290147  RH  033%=      5-min Rain = 0
KAI1 070059Z 15010KT 33/15 A2996 RMK A01 T03280147  RH  034%=      5-min Rain = 0
KAI1 070100Z 15012KT 33/15 A2996 RMK A01 T03280147  RH  034%=      5-min Rain = 0
KAI1 070101Z 15011KT 33/15 A2996 RMK A01 T03280146  RH  033%=      5-min Rain = 0
KAI1 070102Z 15011KT 33/15 A2996 RMK A01 T03270147  RH  034%=      5-min Rain = 0
KAI1 070103Z 15012KT 33/15 A2996 RMK A01 T03270146  RH  034%=      5-min Rain = 0
KAI1 070104Z 15011KT 33/15 A2996 RMK A01 T03270146  RH  034%=      5-min Rain = 0
KAI1 070105Z 15013G18KT 33/15 A2996 RMK A01 T03270145  RH  033%=      5-min Rain = 0
KAI1 070106Z 15012KT 33/15 A2996 RMK A01 T03270145  RH  033%=      5-min Rain = 0
KAI1 070107Z 15011KT 33/15 A2996 RMK A01 T03260145  RH  034%=      5-min Rain = 0
KAI1 070108Z 15012KT 33/15 A2996 RMK A01 T03260145  RH  034%=      5-min Rain = 0
KAI1 070109Z 15011KT 33/15 A2996 RMK A01 T03260146  RH  034%=      5-min Rain = 0
KAI1 070110Z 15011KT 33/15 A2996 RMK A01 T03250146  RH  034%=      5-min Rain = 0
KAI1 070111Z 15011KT 33/15 A2996 RMK A01 T03250146  RH  034%=      5-min Rain = 0
KAI1 070112Z 15010KT 32/15 A2996 RMK A01 T03240146  RH  034%=      5-min Rain = 0
KAI1 070113Z 15009KT 32/15 A2996 RMK A01 T03240146  RH  034%=      5-min Rain = 0
KAI1 070114Z 15011KT 32/15 A2996 RMK A01 T03230147  RH  034%=      5-min Rain = 0
KAI1 070115Z 15011KT 32/15 A2996 RMK A01 T03220147  RH  035%=      5-min Rain = 0
KAI1 070116Z 15011KT 32/15 A2996 RMK A01 T03220147  RH  035%=      5-min Rain = 0
KAI1 070117Z 16010KT 32/15 A2997 RMK A01 T03210146  RH  035%=      5-min Rain = 0
KAI1 070118Z 15010KT 32/15 A2997 RMK A01 T03210147  RH  035%=      5-min Rain = 0
KAI1 070119Z 15010KT 32/15 A2997 RMK A01 T03210147  RH  035%=      5-min Rain = 0
KAI1 070120Z 15009KT 32/15 A2997 RMK A01 T03210147  RH  035%=      5-min Rain = 0
KAI1 070121Z 15010KT 32/15 A2997 RMK A01 T03200147  RH  035%=      5-min Rain = 0
KAI1 070122Z 16009KT 32/15 A2997 RMK A01 T03200147  RH  035%=      5-min Rain = 0
KAI1 070123Z 15009KT 32/15 A2997 RMK A01 T03190148  RH  035%=      5-min Rain = 0
KAI1 070124Z 16011KT 32/15 A2997 RMK A01 T03190148  RH  036%=      5-min Rain = 0
KAI1 070125Z 16011KT 32/15 A2997 RMK A01 T03180147  RH  036%=      5-min Rain = 0
KAI1 070126Z 16011KT 32/15 A2997 RMK A01 T03180146  RH  035%=      5-min Rain = 0
KAI1 070127Z 16012KT 32/15 A2997 RMK A01 T03180145  RH  035%=      5-min Rain = 0
KAI1 070128Z 16009KT 32/15 A2997 RMK A01 T03180146  RH  035%=      5-min Rain = 0
KAI1 070129Z 16009KT 32/15 A2997 RMK A01 T03180145  RH  035%=      5-min Rain = 0
KAI1 070130Z 17010KT 32/15 A2997 RMK A01 T03170145  RH  035%=      5-min Rain = 0
KAI1 070131Z 17010KT 32/15 A2997 RMK A01 T03170145  RH  035%=      5-min Rain = 0
KAI1 070132Z 17010KT 32/14 A2997 RMK A01 T03170144  RH  035%=      5-min Rain = 0
KAI1 070133Z 17010KT 32/14 A2997 RMK A01 T03170144  RH  035%=      5-min Rain = 0
KAI1 070134Z 16010KT 32/14 A2997 RMK A01 T03160144  RH  035%=      5-min Rain = 0
KAI1 070135Z 17013KT 32/14 A2997 RMK A01 T03160143  RH  035%=      5-min Rain = 0
KAI1 070136Z 17011KT 32/14 A2997 RMK A01 T03160143  RH  035%=      5-min Rain = 0
KAI1 070137Z 17013KT 32/14 A2997 RMK A01 T03160142  RH  035%=      5-min Rain = 0
KAI1 070138Z 16011KT 32/14 A2997 RMK A01 T03170142  RH  035%=      5-min Rain = 0
KAI1 070139Z 16013KT 32/14 A2997 RMK A01 T03170142  RH  035%=      5-min Rain = 0
KAI1 070140Z 17012KT 32/14 A2997 RMK A01 T03170141  RH  035%=      5-min Rain = 0
KAI1 070141Z 16010KT 32/14 A2997 RMK A01 T03170142  RH  035%=      5-min Rain = 0
KAI1 070142Z 17011KT 32/14 A2997 RMK A01 T03170142  RH  035%=      5-min Rain = 0
KAI1 070143Z 17010KT 32/14 A2997 RMK A01 T03170142  RH  035%=      5-min Rain = 0
KAI1 070144Z 16010KT 32/14 A2997 RMK A01 T03150142  RH  035%=      5-min Rain = 0
KAI1 070145Z 17010KT 32/14 A2997 RMK A01 T03150143  RH  035%=      5-min Rain = 0
KAI1 070146Z 16010KT 32/14 A2997 RMK A01 T03150142  RH  035%=      5-min Rain = 0
KAI1 070147Z 17010KT 31/14 A2997 RMK A01 T03140142  RH  035%=      5-min Rain = 0
KAI1 070148Z 17011KT 31/14 A2997 RMK A01 T03140142  RH  035%=      5-min Rain = 0
KAI1 070149Z 17012KT 31/14 A2997 RMK A01 T03140142  RH  035%=      5-min Rain = 0
KAI1 070150Z 17010KT 31/14 A2997 RMK A01 T03140142  RH  035%=      5-min Rain = 0
KAI1 070151Z 17011KT 31/14 A2997 RMK A01 T03140142  RH  035%=      5-min Rain = 0
KAI1 070152Z 17011KT 31/14 A2997 RMK A01 T03140142  RH  035%=      5-min Rain = 0
KAI1 070153Z 17011KT 31/14 A2998 RMK A01 T03140142  RH  035%=      5-min Rain = 0
KAI1 070154Z 17011KT 31/14 A2998 RMK A01 T03130142  RH  035%=      5-min Rain = 0
KAI1 070155Z 17010KT 31/14 A2998 RMK A01 T03130143  RH  036%=      5-min Rain = 0
KAI1 070156Z 17011KT 31/14 A2998 RMK A01 T03120143  RH  036%=      5-min Rain = 0
KAI1 070157Z 17011KT 31/14 A2998 RMK A01 T03120142  RH  036%=      5-min Rain = 0
KAI1 070158Z 17009KT 31/14 A2998 RMK A01 T03120142  RH  036%=      5-min Rain = 0
KAI1 070159Z 17009KT 31/14 A2998 RMK A01 T03120143  RH  036%=      5-min Rain = 0
KAI1 070200Z 17011KT 31/14 A2998 RMK A01 T03110143  RH  036%=      5-min Rain = 0
KAI1 070201Z 17012KT 31/14 A2998 RMK A01 T03110142  RH  036%=      5-min Rain = 0
KAI1 070202Z 17011KT 31/14 A2998 RMK A01 T03110142  RH  036%=      5-min Rain = 0
KAI1 070203Z 17012KT 31/14 A2998 RMK A01 T03110142  RH  036%=      5-min Rain = 0
KAI1 070204Z 17011KT 31/14 A2998 RMK A01 T03110143  RH  036%=      5-min Rain = 0
KAI1 070205Z 17010KT 31/14 A2998 RMK A01 T03100142  RH  036%=      5-min Rain = 0
KAI1 070206Z 18011KT 31/14 A2998 RMK A01 T03100142  RH  036%=      5-min Rain = 0
KAI1 070207Z 17010KT 31/14 A2998 RMK A01 T03100142  RH  036%=      5-min Rain = 0
KAI1 070208Z 18010KT 31/14 A2998 RMK A01 T03090142  RH  036%=      5-min Rain = 0
KAI1 070209Z 17010KT 31/14 A2998 RMK A01 T03090143  RH  036%=      5-min Rain = 0
KAI1 070210Z 18009KT 31/14 A2998 RMK A01 T03080142  RH  037%=      5-min Rain = 0
KAI1 070211Z 17010KT 31/14 A2998 RMK A01 T03070142  RH  037%=      5-min Rain = 0
KAI1 070212Z 18010KT 31/14 A2998 RMK A01 T03070142  RH  037%=      5-min Rain = 0
KAI1 070213Z 18008KT 31/14 A2998 RMK A01 T03070143  RH  037%=      5-min Rain = 0
KAI1 070214Z 18009KT 31/14 A2998 RMK A01 T03050142  RH  037%=      5-min Rain = 0
KAI1 070215Z 18008KT 30/14 A2998 RMK A01 T03040142  RH  037%=      5-min Rain = 0
KAI1 070216Z 19009KT 30/14 A2998 RMK A01 T03030141  RH  037%=      5-min Rain = 0
KAI1 070217Z 20009KT 30/14 A2998 RMK A01 T03030141  RH  037%=      5-min Rain = 0
KAI1 070218Z 20010KT 30/14 A2998 RMK A01 T03030141  RH  037%=      5-min Rain = 0
KAI1 070219Z 20010KT 30/14 A2998 RMK A01 T03020141  RH  038%=      5-min Rain = 0
KAI1 070220Z 19010KT 30/14 A2998 RMK A01 T03010141  RH  038%=      5-min Rain = 0
KAI1 070221Z 19010KT 30/14 A2998 RMK A01 T03020141  RH  038%=      5-min Rain = 0
KAI1 070222Z 19010KT 30/14 A2998 RMK A01 T03010140  RH  037%=      5-min Rain = 0
KAI1 070223Z 20011KT 30/14 A2998 RMK A01 T03020139  RH  037%=      5-min Rain = 0
KAI1 070224Z 20012KT 30/14 A2999 RMK A01 T03020139  RH  037%=      5-min Rain = 0
KAI1 070225Z 20012KT 30/14 A2999 RMK A01 T03020138  RH  037%=      5-min Rain = 0
KAI1 070226Z 20011KT 30/14 A2999 RMK A01 T03020138  RH  037%=      5-min Rain = 0
KAI1 070227Z 20011KT 30/14 A2999 RMK A01 T03020138  RH  037%=      5-min Rain = 0
KAI1 070228Z 20011KT 30/14 A2999 RMK A01 T03020138  RH  037%=      5-min Rain = 0
KAI1 070229Z 20010KT 30/14 A2999 RMK A01 T03010138  RH  037%=      5-min Rain = 0
KAI1 070230Z 20012KT 30/14 A2999 RMK A01 T03000136  RH  037%=      5-min Rain = 0
KAI1 070231Z 20010KT 30/14 A2999 RMK A01 T03000135  RH  036%=      5-min Rain = 0
KAI1 070232Z 20010KT 30/14 A2999 RMK A01 T03000135  RH  036%=      5-min Rain = 0
KAI1 070233Z 20010KT 30/13 A2999 RMK A01 T02990134  RH  036%=      5-min Rain = 0
KAI1 070234Z 21011KT 30/13 A2999 RMK A01 T02990133  RH  036%=      5-min Rain = 0
KAI1 070235Z 21011KT 30/13 A2999 RMK A01 T02980132  RH  036%=      5-min Rain = 0
KAI1 070236Z 21009KT 30/13 A2999 RMK A01 T02980131  RH  036%=      5-min Rain = 0
KAI1 070237Z 21010KT 30/13 A2999 RMK A01 T02960130  RH  036%=      5-min Rain = 0
KAI1 070238Z 21010KT 30/13 A2999 RMK A01 T02960130  RH  036%=      5-min Rain = 0
KAI1 070239Z 20011KT 30/13 A2999 RMK A01 T02950129  RH  036%=      5-min Rain = 0
KAI1 070240Z 21010KT 30/13 A2999 RMK A01 T02950129  RH  036%=      5-min Rain = 0
KAI1 070241Z 20010KT 30/13 A2999 RMK A01 T02950129  RH  036%=      5-min Rain = 0
KAI1 070242Z 20012KT 30/13 A2999 RMK A01 T02950129  RH  036%=      5-min Rain = 0
KAI1 070243Z 20012KT 30/13 A2999 RMK A01 T02950130  RH  036%=      5-min Rain = 0
KAI1 070244Z 20012KT 30/13 A2999 RMK A01 T02950129  RH  036%=      5-min Rain = 0
KAI1 070245Z 19014KT 30/13 A2999 RMK A01 T02960130  RH  036%=      5-min Rain = 0
KAI1 070246Z 19012KT 30/13 A2999 RMK A01 T02970130  RH  036%=      5-min Rain = 0
KAI1 070247Z 20014KT 30/13 A2999 RMK A01 T02970131  RH  036%=      5-min Rain = 0
KAI1 070248Z 19012KT 30/13 A2999 RMK A01 T02980131  RH  036%=      5-min Rain = 0
KAI1 070249Z 19015KT 30/13 A2999 RMK A01 T02980131  RH  036%=      5-min Rain = 0
KAI1 070250Z 19015KT 30/13 A2999 RMK A01 T02990132  RH  036%=      5-min Rain = 0
KAI1 070251Z 19012KT 30/13 A2999 RMK A01 T02990132  RH  036%=      5-min Rain = 0
KAI1 070252Z 19012KT 30/13 A2999 RMK A01 T02990132  RH  036%=      5-min Rain = 0
KAI1 070253Z 19012KT 30/13 A2999 RMK A01 T02980133  RH  036%=      5-min Rain = 0
KAI1 070254Z 19010KT 30/13 A2999 RMK A01 T02970133  RH  037%=      5-min Rain = 0
KAI1 070255Z 19011KT 30/13 A2999 RMK A01 T02950133  RH  037%=      5-min Rain = 0
KAI1 070256Z 19010KT 29/13 A2999 RMK A01 T02940133  RH  037%=      5-min Rain = 0
KAI1 070257Z 19011KT 29/13 A2999 RMK A01 T02930134  RH  038%=      5-min Rain = 0
KAI1 070258Z 18011KT 29/13 A2999 RMK A01 T02920134  RH  038%=      5-min Rain = 0
KAI1 070259Z 19011KT 29/14 A2999 RMK A01 T02920135  RH  038%=      5-min Rain = 0
KAI1 070300Z 18012KT 29/13 A2999 RMK A01 T02920134  RH  038%=      5-min Rain = 0
KAI1 070301Z 18011KT 29/13 A2999 RMK A01 T02920133  RH  038%=      5-min Rain = 0
KAI1 070302Z 19011KT 29/13 A2999 RMK A01 T02920133  RH  037%=      5-min Rain = 0
KAI1 070303Z 19010KT 29/13 A2999 RMK A01 T02920133  RH  037%=      5-min Rain = 0
KAI1 070304Z 19012KT 29/13 A2999 RMK A01 T02920133  RH  038%=      5-min Rain = 0
KAI1 070305Z 19011KT 29/13 A2999 RMK A01 T02910132  RH  038%=      5-min Rain = 0
KAI1 070306Z 19012KT 29/13 A2999 RMK A01 T02910132  RH  038%=      5-min Rain = 0
KAI1 070307Z 19012KT 29/13 A2999 RMK A01 T02900132  RH  038%=      5-min Rain = 0
KAI1 070308Z 19011KT 29/13 A2999 RMK A01 T02890132  RH  038%=      5-min Rain = 0
KAI1 070309Z 19011KT 29/13 A2999 RMK A01 T02880132  RH  038%=      5-min Rain = 0
KAI1 070310Z 19011KT 29/13 A2999 RMK A01 T02880132  RH  038%=      5-min Rain = 0
KAI1 070311Z 18012KT 29/13 A2999 RMK A01 T02870132  RH  039%=      5-min Rain = 0
KAI1 070312Z 18011KT 29/13 A2999 RMK A01 T02870132  RH  039%=      5-min Rain = 0
KAI1 070313Z 18010KT 29/13 A2999 RMK A01 T02870132  RH  039%=      5-min Rain = 0
KAI1 070314Z 18010KT 29/13 A2999 RMK A01 T02870132  RH  039%=      5-min Rain = 0
KAI1 070315Z 18010KT 29/13 A2999 RMK A01 T02860132  RH  039%=      5-min Rain = 0
KAI1 070316Z 18010KT 29/13 A2999 RMK A01 T02860132  RH  039%=      5-min Rain = 0
KAI1 070317Z 18011KT 29/13 A2999 RMK A01 T02850131  RH  039%=      5-min Rain = 0
KAI1 070318Z 19010KT 29/13 A2999 RMK A01 T02850131  RH  039%=      5-min Rain = 0
KAI1 070319Z 19010KT 29/13 A2999 RMK A01 T02850131  RH  039%=      5-min Rain = 0
KAI1 070320Z 19010KT 28/13 A2999 RMK A01 T02840131  RH  039%=      5-min Rain = 0
KAI1 070321Z 19011KT 28/13 A2999 RMK A01 T02840131  RH  039%=      5-min Rain = 0
KAI1 070322Z 19010KT 28/13 A2999 RMK A01 T02830131  RH  039%=      5-min Rain = 0
KAI1 070323Z 19009KT 28/13 A2999 RMK A01 T02830131  RH  039%=      5-min Rain = 0
KAI1 070324Z 19009KT 28/13 A30 RMK A01 T02820131  RH  039%=      5-min Rain = 0
KAI1 070325Z 19009KT 28/13 A30 RMK A01 T02810131  RH  039%=      5-min Rain = 0
KAI1 070326Z 19009KT 28/13 A30 RMK A01 T02810130  RH  040%=      5-min Rain = 0
KAI1 070327Z 19009KT 28/13 A30 RMK A01 T02810131  RH  040%=      5-min Rain = 0
KAI1 070328Z 19008KT 28/13 A30 RMK A01 T02800130  RH  040%=      5-min Rain = 0
KAI1 070329Z 19008KT 28/13 A30 RMK A01 T02790131  RH  040%=      5-min Rain = 0
KAI1 070330Z 19008KT 28/13 A30 RMK A01 T02780131  RH  040%=      5-min Rain = 0
KAI1 070331Z 18008KT 28/13 A30 RMK A01 T02770131  RH  041%=      5-min Rain = 0
KAI1 070332Z 18008KT 28/13 A30 RMK A01 T02770132  RH  041%=      5-min Rain = 0
KAI1 070333Z 19008KT 28/13 A30 RMK A01 T02750132  RH  041%=      5-min Rain = 0
KAI1 070334Z 19008KT 28/13 A30 RMK A01 T02750132  RH  041%=      5-min Rain = 0
KAI1 070335Z 19008KT 27/13 A30 RMK A01 T02730132  RH  042%=      5-min Rain = 0
KAI1 070336Z 18008KT 27/13 A30 RMK A01 T02730132  RH  042%=      5-min Rain = 0
KAI1 070337Z 18007KT 27/13 A30 RMK A01 T02720133  RH  042%=      5-min Rain = 0
KAI1 070338Z 18007KT 27/13 A30 RMK A01 T02720134  RH  043%=      5-min Rain = 0
KAI1 070339Z 18007KT 27/13 A30 RMK A01 T02710134  RH  043%=      5-min Rain = 0
KAI1 070340Z 17008KT 27/14 A30 RMK A01 T02700135  RH  043%=      5-min Rain = 0
KAI1 070341Z 17008KT 27/14 A3001 RMK A01 T02690136  RH  044%=      5-min Rain = 0
KAI1 070342Z 17009KT 27/14 A3001 RMK A01 T02680135  RH  044%=      5-min Rain = 0
KAI1 070343Z 18010KT 27/13 A3001 RMK A01 T02680133  RH  043%=      5-min Rain = 0
KAI1 070344Z 18011KT 27/13 A3001 RMK A01 T02700133  RH  043%=      5-min Rain = 0
KAI1 070345Z 18009KT 27/13 A3001 RMK A01 T02720133  RH  042%=      5-min Rain = 0
KAI1 070346Z 17010KT 27/13 A3001 RMK A01 T02730133  RH  042%=      5-min Rain = 0
KAI1 070347Z 17009KT 27/13 A3001 RMK A01 T02730134  RH  042%=      5-min Rain = 0
KAI1 070348Z 15009KT 27/14 A3001 RMK A01 T02730136  RH  043%=      5-min Rain = 0
KAI1 070349Z 16008KT 27/14 A3001 RMK A01 T02710137  RH  044%=      5-min Rain = 0
KAI1 070350Z 16008KT 27/14 A3001 RMK A01 T02690137  RH  044%=      5-min Rain = 0
KAI1 070351Z 16008KT 27/14 A3001 RMK A01 T02680137  RH  045%=      5-min Rain = 0
KAI1 070352Z 17009KT 27/14 A3001 RMK A01 T02670138  RH  045%=      5-min Rain = 0
KAI1 070353Z 17010KT 27/14 A3001 RMK A01 T02670139  RH  045%=      5-min Rain = 0
KAI1 070354Z 17010KT 27/14 A3001 RMK A01 T02670139  RH  045%=      5-min Rain = 0
KAI1 070355Z 17009KT 27/14 A3001 RMK A01 T02670139  RH  045%=      5-min Rain = 0
KAI1 070356Z 17008KT 27/14 A3001 RMK A01 T02670139  RH  045%=      5-min Rain = 0
KAI1 070357Z 17009KT 27/14 A3001 RMK A01 T02670141  RH  046%=      5-min Rain = 0
KAI1 070358Z 16010KT 27/14 A3001 RMK A01 T02670141  RH  046%=      5-min Rain = 0
KAI1 070359Z 17010KT 27/14 A3001 RMK A01 T02670141  RH  046%=      5-min Rain = 0
KAI1 070400Z 17010KT 27/14 A3001 RMK A01 T02670141  RH  046%=      5-min Rain = 0
KAI1 070401Z 17009KT 27/14 A3001 RMK A01 T02660141  RH  046%=      5-min Rain = 0
KAI1 070402Z 17009KT 27/14 A3001 RMK A01 T02670141  RH  046%=      5-min Rain = 0
KAI1 070403Z 17010KT 27/14 A3001 RMK A01 T02670141  RH  046%=      5-min Rain = 0
KAI1 070404Z 17009KT 27/14 A3001 RMK A01 T02670142  RH  046%=      5-min Rain = 0
KAI1 070405Z 18008KT 27/14 A3001 RMK A01 T02670142  RH  046%=      5-min Rain = 0
KAI1 070406Z 18008KT 27/14 A3001 RMK A01 T02660142  RH  046%=      5-min Rain = 0
KAI1 070407Z 17008KT 27/14 A3001 RMK A01 T02650142  RH  047%=      5-min Rain = 0
KAI1 070408Z 17009KT 27/14 A3001 RMK A01 T02650142  RH  047%=      5-min Rain = 0
KAI1 070409Z 17009KT 26/14 A3001 RMK A01 T02640142  RH  047%=      5-min Rain = 0
KAI1 070410Z 16009KT 26/14 A3001 RMK A01 T02640142  RH  047%=      5-min Rain = 0
KAI1 070411Z 17009KT 26/14 A3001 RMK A01 T02630143  RH  047%=      5-min Rain = 0
KAI1 070412Z 17009KT 26/14 A3001 RMK A01 T02630142  RH  047%=      5-min Rain = 0
KAI1 070413Z 18010KT 26/14 A3001 RMK A01 T02630143  RH  047%=      5-min Rain = 0
KAI1 070414Z 18010KT 26/14 A3001 RMK A01 T02630142  RH  047%=      5-min Rain = 0
KAI1 070415Z 18009KT 26/14 A3001 RMK A01 T02630141  RH  047%=      5-min Rain = 0
KAI1 070416Z 19010KT 26/14 A3001 RMK A01 T02640140  RH  046%=      5-min Rain = 0
KAI1 070417Z 19011KT 27/14 A3001 RMK A01 T02650140  RH  046%=      5-min Rain = 0
KAI1 070418Z 19009KT 27/14 A3001 RMK A01 T02660140  RH  046%=      5-min Rain = 0
KAI1 070419Z 20011KT 27/14 A3001 RMK A01 T02670140  RH  046%=      5-min Rain = 0
KAI1 070420Z 19010KT 27/14 A3001 RMK A01 T02670139  RH  046%=      5-min Rain = 0
KAI1 070421Z 19010KT 27/14 A3001 RMK A01 T02670140  RH  046%=      5-min Rain = 0
KAI1 070422Z 19011KT 27/14 A3001 RMK A01 T02660139  RH  046%=      5-min Rain = 0
KAI1 070423Z 19010KT 27/14 A3001 RMK A01 T02670139  RH  045%=      5-min Rain = 0
KAI1 070424Z 19010KT 27/14 A3001 RMK A01 T02660139  RH  045%=      5-min Rain = 0
KAI1 070425Z 20010KT 27/14 A3001 RMK A01 T02660139  RH  045%=      5-min Rain = 0
KAI1 070426Z 19010KT 27/14 A3001 RMK A01 T02660139  RH  045%=      5-min Rain = 0
KAI1 070427Z 19008KT 27/14 A3001 RMK A01 T02660139  RH  045%=      5-min Rain = 0
KAI1 070428Z 19008KT 27/14 A3001 RMK A01 T02660139  RH  046%=      5-min Rain = 0
KAI1 070429Z 19008KT 27/14 A3001 RMK A01 T02650138  RH  046%=      5-min Rain = 0
KAI1 070430Z 19008KT 26/14 A3001 RMK A01 T02640138  RH  046%=      5-min Rain = 0
KAI1 070431Z 19007KT 26/14 A3001 RMK A01 T02630138  RH  046%=      5-min Rain = 0
KAI1 070432Z 19007KT 26/14 A3001 RMK A01 T02630139  RH  046%=      5-min Rain = 0
KAI1 070433Z 19007KT 26/14 A3001 RMK A01 T02620139  RH  046%=      5-min Rain = 0
KAI1 070434Z 19007KT 26/14 A3001 RMK A01 T02610139  RH  047%=      5-min Rain = 0
KAI1 070435Z 19007KT 26/14 A3001 RMK A01 T02610139  RH  047%=      5-min Rain = 0
KAI1 070436Z 18007KT 26/14 A3001 RMK A01 T02600140  RH  048%=      5-min Rain = 0
KAI1 070437Z 18007KT 26/14 A3001 RMK A01 T02590140  RH  048%=      5-min Rain = 0
KAI1 070438Z 18007KT 26/14 A3001 RMK A01 T02580141  RH  048%=      5-min Rain = 0
KAI1 070439Z 18007KT 26/14 A3001 RMK A01 T02570141  RH  049%=      5-min Rain = 0
KAI1 070440Z 18007KT 26/14 A3001 RMK A01 T02560141  RH  049%=      5-min Rain = 0
KAI1 070441Z 18007KT 26/14 A3001 RMK A01 T02550142  RH  049%=      5-min Rain = 0
KAI1 070442Z 18007KT 25/14 A3001 RMK A01 T02540142  RH  050%=      5-min Rain = 0
KAI1 070443Z 18006KT 25/14 A3001 RMK A01 T02530143  RH  050%=      5-min Rain = 0
KAI1 070444Z 18006KT 25/14 A30 RMK A01 T02530143  RH  051%=      5-min Rain = 0
KAI1 070445Z 18006KT 25/14 A30 RMK A01 T02510142  RH  051%=      5-min Rain = 0
KAI1 070446Z 19006KT 25/14 A3001 RMK A01 T02510143  RH  051%=      5-min Rain = 0
KAI1 070447Z 19006KT 25/14 A3001 RMK A01 T02500142  RH  051%=      5-min Rain = 0
KAI1 070448Z 19005KT 25/14 A3001 RMK A01 T02500142  RH  051%=      5-min Rain = 0
KAI1 070449Z 19005KT 25/14 A3001 RMK A01 T02490143  RH  052%=      5-min Rain = 0
KAI1 070450Z 19005KT 25/14 A3001 RMK A01 T02490143  RH  052%=      5-min Rain = 0
KAI1 070451Z 19005KT 25/14 A30 RMK A01 T02480142  RH  052%=      5-min Rain = 0
KAI1 070452Z 19005KT 25/14 A30 RMK A01 T02480142  RH  052%=      5-min Rain = 0
KAI1 070453Z 19005KT 25/14 A3001 RMK A01 T02480142  RH  052%=      5-min Rain = 0
KAI1 070454Z 19005KT 25/14 A3001 RMK A01 T02470143  RH  052%=      5-min Rain = 0
KAI1 070455Z 19005KT 25/14 A3001 RMK A01 T02460143  RH  052%=      5-min Rain = 0
KAI1 070456Z 19005KT 25/14 A30 RMK A01 T02460143  RH  053%=      5-min Rain = 0
KAI1 070457Z 18005KT 25/14 A30 RMK A01 T02450144  RH  053%=      5-min Rain = 0
KAI1 070458Z 18005KT 25/15 A30 RMK A01 T02450146  RH  054%=      5-min Rain = 0
KAI1 070459Z 18005KT 24/15 A30 RMK A01 T02430147  RH  055%=      5-min Rain = 0

Page generated in 0.1133 seconds.